[[{"header":{"parameterUnit":"m.s-1","parameterCategory":1,"la1":30.6,"la2":29.2853,"lo1":-89.7004,"lo2":-87.6739,"dx":0.0162,"dy":0.0183,"nx":112,"ny":82,"refTime":"2023-02-08T18:00:00:Z","depth":0,"parameterNumber":2,"parameterNumberName":"U-component_of_WINDS"},"data":[0.0,0.0,0.0,0.0,0.0,0.0,0.0,0.0,0.0,0.0,0.0,0.0,0.0,0.0,0.0,0.0,0.0,0.0,0.0,0.0,0.0,0.0,0.0,0.0,0.0,0.0,0.0,0.0,0.0,0.0,0.0,0.0,0.0,0.0,0.0,0.0,0.0,0.0,0.0,0.0,0.0,0.0,0.0,0.0,0.0,0.0,0.0,0.0,0.0,0.0,0.0,0.0,0.0,0.0,0.0,0.0,0.0,0.0,0.0,0.0,0.0,0.0,0.0,0.0,0.0,0.0,0.0,0.0,0.0,0.0,0.0,0.0,0.0,0.0,0.0,0.0,0.0,0.0,0.0,0.0,0.0,0.0,0.0,0.0,0.0,0.0,0.0,0.0,0.0,0.0,0.0,2.2963,2.4326,2.5191,2.5191,2.5191,2.44,2.2525,0.0,0.0,0.0,0.0,0.0,0.0,0.0,0.0,0.0,0.0,0.0,0.0,0.0,0.0,0.0,0.0,0.0,0.0,0.0,0.0,0.0,0.0,0.0,0.0,0.0,0.0,0.0,0.0,0.0,0.0,0.0,0.0,0.0,0.0,0.0,0.0,0.0,0.0,0.0,0.0,0.0,0.0,0.0,0.0,0.0,0.0,0.0,0.0,0.0,0.0,0.0,0.0,0.0,0.0,0.0,0.0,0.0,0.0,0.0,0.0,0.0,0.0,0.0,0.0,0.0,0.0,0.0,0.0,0.0,0.0,0.0,0.0,0.0,0.0,0.0,0.0,0.0,0.0,0.0,0.0,0.0,0.0,0.0,0.0,0.0,0.0,0.0,0.0,0.0,0.0,0.0,0.0,0.0,0.0,0.0,0.0,0.0,0.0,0.0,0.0,0.0,0.0,0.0,0.0,2.3179,2.4656,2.5038,2.5191,2.5191,2.5191,2.44,2.2525,0.0,0.0,0.0,0.0,0.0,0.0,0.0,0.0,0.0,0.0,0.0,0.0,0.0,0.0,0.0,0.0,0.0,0.0,0.0,0.0,0.0,0.0,0.0,0.0,0.0,0.0,0.0,0.0,0.0,0.0,0.0,0.0,0.0,0.0,0.0,0.0,0.0,0.0,0.0,0.0,0.0,0.0,0.0,0.0,0.0,0.0,0.0,0.0,0.0,0.0,0.0,0.0,0.0,0.0,0.0,0.0,0.0,0.0,0.0,0.0,0.0,0.0,0.0,0.0,0.0,0.0,0.0,0.0,0.0,0.0,0.0,0.0,0.0,0.0,0.0,0.0,0.0,0.0,0.0,0.0,0.0,0.0,0.0,0.0,0.0,0.0,0.0,0.0,0.0,0.0,0.0,0.0,0.0,0.0,0.0,0.0,0.0,0.0,0.0,0.0,0.0,0.0,0.0,2.2123,2.3275,2.5019,2.5191,2.5191,2.5191,2.5191,2.44,2.2525,2.2274,0.0,0.0,0.0,0.0,0.0,0.0,0.0,0.0,0.0,0.0,0.0,0.0,0.0,0.0,0.0,0.0,0.0,0.0,0.0,0.0,0.0,0.0,0.0,0.0,0.0,0.0,0.0,0.0,0.0,0.0,0.0,0.0,0.0,0.0,0.0,0.0,0.0,0.0,0.0,0.0,0.0,0.0,0.0,0.0,0.0,0.0,0.0,0.0,0.0,0.0,0.0,0.0,0.0,0.0,0.0,0.0,0.0,0.0,0.0,0.0,0.0,0.0,0.0,0.0,0.0,0.0,0.0,0.0,0.0,0.0,0.0,0.0,0.0,0.0,0.0,0.0,0.0,0.0,0.0,0.0,0.0,0.0,0.0,0.0,0.0,0.0,0.0,0.0,0.0,0.0,0.0,0.0,0.0,0.0,0.0,0.0,0.0,0.0,0.0,0.0,0.0,0.0,2.2963,2.3714,2.5057,2.5191,2.5191,2.5191,2.5191,2.4388,2.2464,2.2255,0.0,0.0,0.0,0.0,0.0,0.0,0.0,0.0,0.0,0.0,0.0,0.0,0.0,0.0,0.0,0.0,0.0,0.0,0.0,0.0,0.0,0.0,0.0,0.0,0.0,0.0,0.0,0.0,0.0,0.0,0.0,0.0,0.0,0.0,0.0,0.0,0.0,0.0,0.0,0.0,0.0,0.0,0.0,0.0,0.0,0.0,0.0,0.0,0.0,0.0,0.0,0.0,0.0,0.0,0.0,0.0,0.0,0.0,0.0,0.0,0.0,0.0,0.0,0.0,0.0,0.0,0.0,0.0,0.0,0.0,0.0,0.0,0.0,0.0,0.0,0.0,0.0,0.0,0.0,0.0,0.0,0.0,0.0,0.0,0.0,0.0,0.0,0.0,0.0,0.0,0.0,0.0,0.0,0.0,0.0,0.0,0.0,0.0,0.0,0.0,0.0,0.0,2.4001,2.5057,2.5191,2.5191,2.5191,2.5191,2.5191,2.4358,2.2342,2.2202,0.0,0.0,0.0,0.0,0.0,0.0,0.0,0.0,0.0,0.0,0.0,0.0,0.0,0.0,0.0,0.0,0.0,0.0,0.0,0.0,0.0,0.0,0.0,0.0,0.0,0.0,0.0,0.0,0.0,0.0,0.0,0.0,0.0,0.0,0.0,0.0,0.0,0.0,0.0,0.0,0.0,0.0,0.0,0.0,0.0,0.0,0.0,0.0,0.0,0.0,0.0,0.0,0.0,0.0,0.0,0.0,0.0,0.0,0.0,0.0,0.0,0.0,0.0,0.0,0.0,0.0,0.0,0.0,0.0,0.0,0.0,0.0,0.0,0.0,0.0,0.0,0.0,0.0,0.0,0.0,0.0,0.0,0.0,0.0,0.0,0.0,0.0,0.0,0.0,0.0,0.0,0.0,0.0,0.0,0.0,0.0,0.0,0.0,0.0,0.0,0.0,0.0,2.3651,2.4784,0.0,2.595,2.6123,2.6606,2.6619,2.5823,2.3938,0.0,0.0,0.0,0.0,0.0,0.0,0.0,0.0,0.0,0.0,0.0,0.0,0.0,0.0,0.0,0.0,0.0,0.0,0.0,0.0,0.0,0.0,0.0,0.0,0.0,0.0,0.0,0.0,0.0,0.0,0.0,0.0,0.0,0.0,0.0,0.0,0.0,0.0,0.0,0.0,0.0,0.0,0.0,0.0,0.0,0.0,0.0,0.0,0.0,0.0,0.0,0.0,0.0,0.0,0.0,0.0,0.0,0.0,0.0,0.0,0.0,0.0,0.0,0.0,0.0,0.0,0.0,0.0,0.0,0.0,0.0,0.0,0.0,0.0,0.0,0.0,0.0,0.0,0.0,0.0,0.0,0.0,0.0,0.0,0.0,0.0,0.0,0.0,0.0,0.0,0.0,0.0,0.0,0.0,0.0,0.0,0.0,0.0,0.0,0.0,0.0,0.0,2.2906,2.3995,2.5237,0.0,2.6803,2.7014,2.7514,2.7518,2.6719,2.4881,0.0,0.0,0.0,0.0,0.0,0.0,0.0,0.0,0.0,0.0,0.0,0.0,0.0,0.0,0.0,0.0,0.0,0.0,0.0,0.0,0.0,0.0,0.0,0.0,0.0,0.0,0.0,0.0,0.0,0.0,0.0,0.0,0.0,0.0,0.0,0.0,0.0,0.0,0.0,0.0,0.0,0.0,0.0,0.0,0.0,0.0,0.0,0.0,0.0,0.0,0.0,0.0,0.0,0.0,0.0,0.0,0.0,0.0,0.0,0.0,0.0,0.0,0.0,0.0,0.0,0.0,0.0,0.0,0.0,0.0,0.0,0.0,0.0,0.0,0.0,0.0,0.0,0.0,0.0,0.0,0.0,0.0,0.0,0.0,0.0,0.0,0.0,0.0,0.0,0.0,0.0,0.0,0.0,0.0,0.0,0.0,0.0,0.0,0.0,0.0,0.0,0.0,2.3799,2.539,2.6746,2.7625,2.772,2.772,2.7714,2.761,2.6724,0.0,0.0,0.0,0.0,0.0,0.0,0.0,0.0,0.0,0.0,0.0,0.0,0.0,0.0,0.0,0.0,0.0,0.0,0.0,0.0,0.0,0.0,0.0,0.0,0.0,0.0,0.0,0.0,0.0,0.0,0.0,0.0,0.0,0.0,0.0,0.0,0.0,0.0,0.0,0.0,0.0,0.0,0.0,0.0,0.0,0.0,0.0,0.0,0.0,0.0,0.0,0.0,0.0,0.0,0.0,0.0,0.0,0.0,0.0,0.0,0.0,0.0,0.0,0.0,0.0,0.0,0.0,0.0,0.0,0.0,0.0,0.0,0.0,0.0,0.0,0.0,0.0,0.0,0.0,0.0,0.0,0.0,0.0,0.0,0.0,0.0,0.0,0.0,0.0,0.0,0.0,0.0,0.0,0.0,0.0,0.0,0.0,0.0,0.0,0.0,0.0,0.0,0.0,0.0,2.6269,2.7619,2.8459,2.8554,2.8736,2.9217,2.9205,2.8323,2.6311,0.0,0.0,0.0,0.0,0.0,0.0,0.0,0.0,0.0,0.0,0.0,0.0,0.0,0.0,0.0,0.0,0.0,0.0,0.0,0.0,0.0,0.0,0.0,0.0,0.0,0.0,0.0,0.0,0.0,0.0,0.0,0.0,0.0,0.0,0.0,0.0,0.0,0.0,0.0,0.0,0.0,0.0,0.0,0.0,0.0,0.0,0.0,0.0,0.0,0.0,0.0,0.0,0.0,0.0,0.0,0.0,0.0,0.0,0.0,0.0,0.0,0.0,0.0,0.0,0.0,0.0,0.0,0.0,0.0,0.0,0.0,0.0,0.0,0.0,0.0,0.0,0.0,0.0,0.0,0.0,0.0,0.0,0.0,0.0,0.0,0.0,0.0,0.0,0.0,0.0,0.0,0.0,0.0,0.0,0.0,0.0,0.0,0.0,0.0,0.0,0.0,0.0,2.5568,2.7147,2.8497,2.9338,2.9414,2.9589,2.9988,2.9956,2.923,2.7624,0.0,0.0,0.0,0.0,0.0,0.0,0.0,0.0,0.0,0.0,0.0,0.0,0.0,0.0,0.0,0.0,0.0,0.0,0.0,0.0,0.0,0.0,0.0,0.0,0.0,0.0,0.0,0.0,0.0,0.0,0.0,0.0,0.0,0.0,0.0,0.0,0.0,0.0,0.0,0.0,0.0,0.0,0.0,0.0,0.0,0.0,0.0,0.0,0.0,0.0,0.0,0.0,0.0,0.0,0.0,0.0,0.0,0.0,0.0,0.0,0.0,0.0,0.0,0.0,0.0,0.0,0.0,0.0,0.0,0.0,0.0,0.0,0.0,0.0,0.0,0.0,0.0,0.0,0.0,0.0,0.0,0.0,0.0,0.0,0.0,0.0,0.0,0.0,0.0,0.0,0.0,0.0,0.0,0.0,0.0,0.0,0.0,0.0,0.0,0.0,0.0,0.0,2.6421,2.7981,2.9318,3.0109,3.0211,3.0185,3.0171,3.0011,2.9515,2.8592,0.0,0.0,0.0,0.0,0.0,0.0,0.0,0.0,0.0,0.0,0.0,0.0,0.0,0.0,0.0,0.0,0.0,0.0,0.0,0.0,0.0,0.0,0.0,0.0,0.0,0.0,0.0,0.0,0.0,0.0,0.0,0.0,0.0,0.0,0.0,0.0,0.0,0.0,0.0,0.0,0.0,0.0,0.0,0.0,0.0,0.0,0.0,0.0,0.0,0.0,0.0,0.0,0.0,0.0,0.0,0.0,0.0,0.0,0.0,0.0,1.5479,0.0,0.0,0.0,0.0,0.0,0.0,0.0,0.0,0.0,0.0,0.0,0.0,0.0,0.0,0.0,0.0,0.0,0.0,0.0,0.0,0.0,0.0,0.0,0.0,0.0,0.0,0.0,0.0,0.0,0.0,0.0,0.0,0.0,0.0,0.0,0.0,0.0,0.0,0.0,0.0,0.0,2.7319,2.8886,2.9994,3.0192,3.0211,3.0135,2.998,2.9913,2.9386,2.8199,0.0,0.0,0.0,0.0,0.0,0.0,0.0,0.0,0.0,0.0,0.0,0.0,0.0,0.0,0.0,0.0,0.0,0.0,0.0,0.0,0.0,0.0,0.0,0.0,0.0,0.0,0.0,0.0,0.0,0.0,0.0,0.0,0.0,0.0,0.0,0.0,0.0,0.0,0.0,0.0,0.0,0.0,0.0,0.0,0.0,0.0,0.0,0.0,0.0,0.0,0.0,0.0,0.0,0.0,0.0,0.0,0.0,0.0,0.0,0.0,0.0,1.6566,0.0,0.0,0.0,0.0,0.0,0.0,0.0,0.0,0.0,0.0,0.0,0.0,0.0,0.0,0.0,0.0,0.0,0.0,0.0,0.0,0.0,0.0,0.0,0.0,0.0,0.0,0.0,0.0,0.0,0.0,0.0,0.0,0.0,0.0,0.0,0.0,0.0,0.0,0.0,0.0,2.7644,2.9153,3.0211,3.0211,3.0211,3.0142,3.0014,2.994,2.959,2.8914,2.8378,0.0,0.0,0.0,0.0,0.0,0.0,0.0,0.0,0.0,0.0,0.0,0.0,0.0,0.0,0.0,0.0,0.0,0.0,0.0,0.0,0.0,0.0,0.0,0.0,0.0,0.0,0.0,0.0,0.0,0.0,0.0,0.0,0.0,0.0,0.0,0.0,0.0,0.0,0.0,0.0,0.0,0.0,0.0,0.0,0.0,0.0,0.0,0.0,0.0,0.0,0.0,0.0,0.0,0.0,0.0,1.9025,1.9025,1.9379,1.9898,1.8723,1.8481,1.8895,0.0,0.0,0.0,0.0,0.0,0.0,0.0,0.0,0.0,0.0,0.0,0.0,0.0,0.0,0.0,0.0,0.0,0.0,0.0,0.0,0.0,0.0,0.0,0.0,0.0,2.4651,2.4787,0.0,0.0,0.0,0.0,0.0,0.0,0.0,0.0,0.0,0.0,0.0,0.0,2.7886,2.9249,3.0211,3.0211,3.0211,3.0176,3.0102,2.9972,2.9866,2.9754,2.8905,2.8301,0.0,0.0,0.0,0.0,0.0,0.0,0.0,0.0,0.0,0.0,0.0,0.0,0.0,0.0,0.0,0.0,0.0,0.0,0.0,0.0,0.0,0.0,0.0,0.0,0.0,0.0,0.0,0.0,0.0,0.0,0.0,0.0,1.5584,1.568,0.0,0.0,0.0,0.0,0.0,0.0,0.0,0.0,0.0,0.0,0.0,0.0,0.0,0.0,1.8412,1.9279,1.9634,1.9505,2.0385,2.0758,2.0682,2.0682,2.0675,2.0695,2.1176,0.0,1.9572,1.9443,0.0,0.0,0.0,0.0,0.0,0.0,0.0,0.0,0.0,0.0,0.0,0.0,0.0,0.0,0.0,0.0,0.0,0.0,0.0,0.0,0.0,0.0,2.6585,2.6697,2.6791,2.6827,0.0,2.5593,2.4641,2.4602,0.0,0.0,0.0,0.0,0.0,0.0,0.0,0.0,2.8643,2.9593,3.0211,3.0211,3.0211,3.0176,3.0102,2.9972,2.9794,2.9542,2.9352,2.8876,2.8036,2.7917,0.0,0.0,0.0,0.0,0.0,0.0,0.0,0.0,0.0,0.0,0.0,0.0,0.0,0.0,0.0,0.0,0.0,0.0,0.0,0.0,0.0,0.0,0.0,0.0,0.0,0.0,0.0,0.0,0.0,1.5012,1.5332,1.5332,1.5375,1.5254,0.0,0.0,0.0,0.0,0.0,0.0,0.0,0.0,0.0,1.957,1.9678,1.9876,2.0165,2.0992,2.1304,2.1103,2.1936,2.2275,2.2189,2.2189,2.2148,2.2101,2.247,2.2242,2.1581,2.1153,2.0574,1.9907,0.0,0.0,0.0,0.0,0.0,1.9401,2.0321,0.0,0.0,0.0,0.0,0.0,0.0,0.0,0.0,0.0,0.0,0.0,0.0,0.0,0.0,2.7665,2.7872,2.8012,2.8544,2.8064,2.7307,0.0,2.6604,2.6619,2.5813,0.0,0.0,0.0,0.0,0.0,2.8853,2.9669,3.0211,3.0211,3.0211,3.0176,3.0102,2.9972,2.9839,2.969,2.9598,2.9323,2.8808,2.8424,2.7866,0.0,0.0,0.0,0.0,0.0,0.0,0.0,0.0,0.0,0.0,0.0,0.0,0.0,0.0,0.0,0.0,0.0,0.0,0.0,0.0,0.0,0.0,0.0,0.0,0.0,0.0,0.0,0.0,1.5427,1.5669,1.5659,1.6312,1.6448,0.0,0.0,0.0,0.0,0.0,0.0,1.9571,1.9876,2.0373,2.1169,2.1178,2.1362,2.1774,2.2393,2.2665,2.2576,2.3247,2.3592,2.3686,2.3686,2.3686,2.3686,2.3686,2.3686,2.3633,2.2891,2.2464,2.2253,2.1849,2.1568,0.0,2.1633,2.1703,2.1831,2.2781,2.3495,2.3969,2.3774,0.0,2.441,2.3873,0.0,0.0,0.0,0.0,2.5456,2.652,0.0,2.7171,2.8371,2.8708,2.8904,2.9551,2.9514,2.908,0.0,2.7996,2.7721,2.6934,0.0,0.0,0.0,0.0,2.8933,2.9197,2.9803,3.0211,3.0211,3.0211,3.0176,3.0102,2.9948,2.9822,2.9808,2.9682,2.9569,2.9472,2.8999,2.8521,0.0,0.0,0.0,0.0,0.0,0.0,0.0,0.0,0.0,0.0,0.0,0.0,0.0,0.0,0.0,0.0,0.0,0.0,0.0,0.0,0.0,0.0,0.0,0.0,0.0,0.0,0.0,0.0,0.0,0.0,1.8028,1.8628,0.0,0.0,0.0,0.0,1.8887,1.96,2.0527,2.1678,2.2249,2.2872,2.3596,2.3555,2.3388,2.3106,2.3212,2.3437,2.3809,2.4108,2.4607,2.5279,2.5279,2.5279,2.5279,2.5279,2.5279,2.5226,2.4484,2.3716,2.3125,2.3834,2.3659,2.3072,2.3834,2.4128,2.4221,2.4976,2.5274,2.5187,2.4492,2.3908,2.3567,2.4098,2.4092,0.0,0.0,2.6304,2.6962,2.8535,2.9087,2.9245,2.9319,2.9504,2.9645,2.9683,2.9054,2.8697,0.0,2.9588,2.9334,2.8519,0.0,0.0,2.8635,2.8696,2.9053,3.0018,3.0166,3.0211,3.0211,3.0211,3.0176,3.0102,2.9866,2.9735,2.9799,2.956,2.9501,2.9692,2.9645,2.9242,2.8408,2.8241,0.0,0.0,0.0,0.0,0.0,0.0,0.0,0.0,0.0,0.0,0.0,0.0,0.0,0.0,0.0,0.0,0.0,0.0,0.0,0.0,0.0,0.0,0.0,0.0,0.0,0.0,0.0,0.0,1.8188,1.915,0.0,0.0,1.96,2.0382,2.09,2.1596,2.2291,2.2898,2.3108,2.3263,2.3347,2.3779,2.3897,2.3654,2.4322,2.4641,2.4604,2.4691,2.4972,2.5388,2.522,2.5233,2.5401,2.5401,2.5401,2.5419,2.5682,2.5314,2.4598,2.4892,2.4822,2.4598,2.4892,2.5015,2.505,2.5314,2.5752,2.6209,2.642,2.6539,2.6665,2.6869,2.7085,2.7361,2.7885,2.8125,2.8384,2.8938,2.9158,2.922,2.922,2.9363,2.9511,2.9511,2.9364,2.9326,2.9645,2.9251,2.8763,2.8489,2.8919,2.9168,2.872,2.9205,2.9737,3.0094,3.0183,3.0171,3.0147,3.014,3.0083,2.9972,2.9734,2.9644,2.9799,2.9551,2.9501,2.9701,2.9701,2.9551,2.9251,2.9186,2.8511,0.0,0.0,0.0,0.0,0.0,0.0,0.0,0.0,0.0,0.0,0.0,0.0,0.0,0.0,0.0,0.0,0.0,0.0,0.0,0.0,0.0,0.0,0.0,0.0,0.0,0.0,1.9378,1.8899,2.0094,2.0628,1.9884,2.096,2.1842,2.2211,2.3002,2.3557,2.3732,2.3975,2.4032,2.3857,2.4244,2.4361,2.4135,2.4794,2.5132,2.5167,2.533,2.5646,2.6079,2.5958,2.6001,2.6174,2.6174,2.6174,2.6226,2.6753,2.6665,2.6174,2.6174,2.6174,2.6174,2.6174,2.6174,2.6174,2.6174,2.6542,2.7052,2.7543,2.7961,2.8268,2.8268,2.8543,2.887,2.887,2.8892,2.8925,2.8925,2.8989,2.9034,2.9034,2.9166,2.9312,2.9312,2.9453,2.9607,2.9607,2.913,2.8765,2.8838,2.9298,2.9409,2.8714,2.9396,2.992,2.9688,2.9949,3.0154,3.0102,3.0117,3.0026,2.9786,2.9325,2.9233,2.9636,2.9201,2.9153,2.9683,2.942,2.9401,2.9683,2.9701,2.9007,2.759,0.0,0.0,0.0,0.0,0.0,0.0,0.0,0.0,0.0,0.0,0.0,0.0,0.0,0.0,0.0,0.0,0.0,0.0,0.0,0.0,0.0,0.0,0.0,1.9522,1.994,2.0372,2.0372,2.1574,2.2088,2.1345,2.2141,2.272,2.2767,2.3663,2.4226,2.4226,2.4896,2.5285,2.5285,2.5114,2.4883,2.4626,2.4643,2.4959,2.5545,2.6006,2.6615,2.7388,2.7582,2.7686,2.7701,2.7701,2.7701,2.7701,2.7701,2.7701,2.7701,2.7701,2.7701,2.7701,2.7701,2.7701,2.7701,2.7701,2.7701,2.7701,2.7701,2.7836,2.8014,2.7996,2.8178,2.8411,2.8411,2.8497,2.86,2.86,2.8731,2.8893,2.8893,2.8989,2.9097,2.9097,2.9262,2.9412,2.9412,2.9402,2.9453,2.9683,2.954,2.9222,2.8707,2.9298,0.0,2.8905,2.9562,3.0095,3.0049,3.0116,2.9962,2.9505,2.868,2.853,2.9357,2.8544,2.8532,2.9655,2.8885,2.8848,2.9683,2.9664,2.9251,2.8388,0.0,0.0,0.0,0.0,0.0,0.0,0.0,0.0,0.0,0.0,0.0,0.0,0.0,0.0,0.0,0.0,0.0,0.0,0.0,0.0,0.0,0.0,2.0901,2.0828,2.1395,2.1816,2.1816,2.2126,2.2443,2.2764,2.3056,2.3508,2.4239,2.4548,2.4711,2.4711,2.4901,2.4919,2.4731,2.5203,2.5335,2.511,2.5827,2.6217,2.6303,2.6437,2.6704,2.7119,2.7182,2.7308,2.7478,2.7627,2.7701,2.7701,2.7701,2.7701,2.7701,2.7701,2.7701,2.7701,2.7701,2.7701,2.7701,2.7701,2.7701,2.7701,2.7701,2.7836,2.8011,2.8122,2.8259,2.8406,2.851,2.8574,2.86,2.86,2.8637,2.8687,2.8687,2.8897,2.9097,2.9097,2.9373,2.9626,2.9626,2.9511,2.9453,2.9683,2.9655,2.957,2.9419,0.0,0.0,2.9555,2.9866,2.976,2.8896,2.8906,2.8865,2.8568,2.8254,2.8497,0.0,2.9228,2.9219,2.9683,2.9476,2.9457,2.9701,2.9073,2.8641,0.0,0.0,0.0,0.0,0.0,0.0,0.0,0.0,0.0,0.0,0.0,0.0,0.0,0.0,0.0,0.0,0.0,0.0,0.0,0.0,0.0,0.0,2.1116,2.2122,2.2629,2.2796,2.2864,2.2864,2.3064,2.3376,2.3831,2.3864,2.4154,2.4858,2.5082,2.524,2.5343,2.5546,2.5578,2.5422,2.5813,2.595,2.5798,2.632,2.6538,2.6433,2.6554,2.6674,2.6842,2.7071,2.7246,0.0,2.7524,2.7567,2.7569,2.7446,2.7415,0.0,0.0,0.0,0.0,0.0,2.7701,2.7701,2.7701,2.7701,2.7701,2.7701,2.7836,2.8042,2.8164,2.83,2.8437,2.8562,2.86,2.86,2.86,2.86,2.86,2.86,2.8749,2.8897,2.8897,2.9177,2.9453,2.9453,0.0,0.0,2.956,2.9569,2.9476,2.9204,2.9429,2.9514,0.0,2.9528,2.951,2.8867,2.8955,2.8957,2.8715,2.8407,0.0,0.0,0.0,2.896,2.9148,0.0,0.0,0.0,0.0,2.8941,0.0,0.0,0.0,0.0,2.8222,2.8138,0.0,0.0,0.0,0.0,0.0,0.0,0.0,0.0,0.0,0.0,0.0,0.0,0.0,0.0,0.0,0.0,2.2478,2.3686,2.4328,2.403,2.3716,2.3614,2.4147,2.4525,2.4609,2.4626,2.4751,2.5075,2.5496,2.584,2.6057,0.0,0.0,0.0,0.0,2.6572,2.6502,2.6382,2.6277,2.6203,2.645,2.6537,2.6555,2.7071,2.731,2.731,2.7341,2.7357,2.7341,2.7103,2.7006,2.7054,2.7491,2.7686,2.7701,2.7701,2.7701,0.0,0.0,0.0,0.0,2.7701,2.7821,2.7996,2.8119,2.8273,2.8411,2.8536,2.8587,2.86,2.86,2.86,2.86,2.86,2.8612,2.8637,2.8637,2.8874,2.9097,2.9097,2.9394,2.9569,2.9402,2.9412,2.922,2.8568,2.8997,0.0,2.8484,2.8928,2.9318,2.9335,0.0,0.0,2.9283,2.8764,2.8734,2.9387,2.8762,2.8409,2.8538,2.9288,2.9345,2.8566,2.9307,2.9739,2.9833,2.9833,2.9952,3.0143,2.8464,2.8145,0.0,0.0,0.0,0.0,0.0,0.0,0.0,0.0,0.0,0.0,0.0,0.0,0.0,0.0,0.0,2.1322,2.2768,2.3866,2.3999,2.4706,2.4965,2.4371,2.4421,2.4728,2.5338,2.5389,2.5659,2.63,2.6437,2.6521,2.6554,2.664,0.0,2.6691,2.6691,2.6657,2.6589,2.6486,2.6399,2.6294,0.0,0.0,2.6274,2.6606,2.6759,2.6775,2.6973,2.7086,2.707,2.7022,2.7006,2.7038,2.734,2.7569,2.7701,2.7701,2.7701,2.7701,2.7701,2.7701,2.7701,2.7701,2.773,2.7789,2.7982,2.8136,0.0,2.8393,2.851,2.86,2.86,2.86,2.86,2.86,2.8724,2.8827,2.8827,2.8978,2.9097,2.9097,2.9169,2.9201,2.9158,2.9433,2.9494,2.9039,2.9211,2.9287,2.8979,2.9151,2.9041,2.8359,2.8368,2.8436,2.8426,2.8325,2.8652,2.958,2.9495,2.9411,2.9457,2.9608,2.9608,2.9457,2.9608,3.0021,3.0668,3.0668,3.1092,3.1886,3.02,2.9604,0.0,0.0,0.0,0.0,0.0,0.0,0.0,0.0,0.0,0.0,0.0,1.874,0.0,0.0,2.1428,2.2732,2.3777,2.4647,2.5213,2.5781,2.5879,2.5135,2.5388,2.576,2.6116,2.615,2.6302,2.6657,2.6691,2.6691,2.6691,2.6691,2.6691,2.6691,2.6691,2.6657,2.6589,2.6571,2.6468,2.6295,2.6259,2.6222,2.6203,2.6485,2.6589,2.6623,2.6725,2.6792,2.6792,2.6657,2.6674,2.6825,2.7104,2.734,2.7569,2.7657,2.7701,2.7701,2.7701,2.7701,2.7701,2.7701,2.7701,2.773,2.794,2.8095,2.8214,2.8353,2.8502,2.86,2.86,2.86,2.86,2.86,2.8675,2.8749,2.8749,2.8868,2.8989,2.8989,2.9049,2.9082,2.9012,2.9209,2.9324,2.9137,2.9123,2.9108,2.9,2.9064,2.8972,2.8598,2.8711,2.8848,2.8942,2.9316,2.9776,3.0274,3.0678,3.0903,3.0903,3.0903,3.0903,3.0903,3.0903,3.1091,3.1504,3.1504,3.1817,3.2379,3.1545,3.1265,0.0,0.0,0.0,0.0,0.0,0.0,0.0,0.0,1.7494,1.8909,1.9669,2.0325,2.111,2.1562,2.2379,2.4177,2.4839,2.5441,2.6438,2.6657,2.6471,2.5896,2.6336,2.6691,2.6691,2.6691,2.6691,2.6691,2.6691,2.6691,2.6691,2.6691,2.6691,2.6691,2.6691,2.6674,2.6623,2.6589,2.652,2.6348,2.6312,2.6259,2.6239,2.6433,2.652,2.652,2.652,2.652,2.6502,2.6292,2.6328,2.6537,2.6825,2.7104,2.734,2.7597,2.7701,2.7701,2.7701,2.7701,2.7701,2.7701,2.7701,2.773,2.7879,2.8067,2.8214,2.8327,2.8471,2.86,2.86,2.86,2.86,2.86,2.86,2.86,2.86,2.8737,2.8846,2.8846,2.8938,2.9014,2.9064,2.9159,2.9188,2.9023,2.8938,2.8893,2.8858,2.8881,2.9023,2.9315,2.957,2.9842,3.0133,3.0772,3.1137,3.1137,3.1748,3.2105,3.2105,3.2105,3.2105,3.2105,3.2105,3.218,3.2349,3.2349,3.2533,3.2899,3.2899,3.2824,0.9998,1.1318,0.0,1.5038,1.5574,1.6278,0.0,0.0,1.9367,2.1025,2.1425,2.1704,2.245,2.2712,2.3242,2.4559,2.5144,2.5609,2.6105,2.647,2.6657,2.659,2.664,2.6691,2.6691,2.6691,2.6691,2.6691,2.6691,2.6691,2.6691,2.6691,2.6691,2.6691,2.6691,2.6691,2.6674,2.6572,2.6537,2.6555,2.6328,2.624,2.6278,2.6258,2.6239,2.6239,2.6239,2.6239,2.6239,2.6203,2.622,2.6274,2.6537,2.6809,2.7103,2.7537,2.7701,2.7701,2.7701,2.7701,2.7701,2.7701,2.7701,2.7698,2.773,2.7947,2.8201,2.8214,2.8388,2.86,2.86,2.86,2.86,2.86,2.86,2.86,2.86,2.8612,2.8637,2.8637,2.865,2.888,2.9588,2.9709,2.9486,2.8753,2.881,2.8846,2.8662,2.8798,2.9244,3.0157,3.04,3.0847,3.1757,3.1917,3.1973,3.1973,3.2048,3.2105,3.2105,3.2105,3.2105,3.2105,3.2105,3.248,3.3239,3.3239,3.3739,3.4624,3.4624,3.3926,1.2574,0.0,0.0,0.0,1.677,1.7183,1.8685,1.9423,2.0161,2.1549,2.2346,2.2933,2.3309,2.3495,2.3923,0.0,2.5349,2.5726,2.635,2.659,2.6691,2.6691,2.6691,2.6691,2.6691,2.6691,2.6691,2.6691,2.6691,2.6691,2.6691,2.6691,2.6691,2.6691,2.6691,2.6691,2.6691,2.664,2.6606,2.6589,2.645,2.6346,2.6295,2.6222,2.6202,2.6202,2.6202,2.6202,2.6202,2.6202,2.6202,2.6238,2.6502,2.6759,2.7038,2.7402,2.7597,2.7701,2.7701,2.7701,2.7701,2.7701,2.7701,2.7701,2.7701,2.7933,2.8201,2.8201,2.873,2.93,2.93,2.9644,3.0007,3.0007,3.0007,3.0007,3.0007,3.0007,3.0007,3.0007,3.0007,3.0097,3.0437,3.0509,3.0382,3.0043,3.0067,3.0093,3.002,3.0271,3.0711,3.1315,3.1447,3.164,3.2067,3.2555,3.2856,3.2856,3.3306,3.355,3.355,3.355,3.355,3.355,3.355,3.3719,3.4095,3.4095,3.4348,3.484,3.4879,3.4622,1.4337,0.0,0.0,1.7348,1.7886,1.8106,1.8895,1.9857,2.0898,2.1895,2.2921,2.3653,2.3782,2.3903,0.0,2.5114,2.5387,2.5744,2.6436,2.6641,2.6691,2.6691,2.6691,2.6691,2.6691,2.6691,2.6691,2.6691,2.6691,2.6691,2.6691,2.6691,2.6691,2.6691,2.6691,2.6691,2.6691,2.6691,2.6657,2.664,2.6503,2.6416,2.6347,2.6257,2.6202,2.6202,2.6202,2.6202,2.6202,2.6202,2.6202,2.622,2.6415,2.6657,2.6908,2.7182,2.7461,2.7701,2.7701,2.7701,2.7701,2.7701,2.7841,2.8035,2.8035,2.8411,2.883,2.883,2.9463,3.0129,3.0129,3.0563,3.0998,3.0998,3.0998,3.0998,3.0998,3.0998,3.0998,3.0998,3.0998,3.1071,3.1288,3.1329,3.1415,3.1618,3.1655,3.1492,3.1071,3.1548,3.2082,3.2431,3.2668,3.278,3.278,3.3362,3.3738,3.3738,3.4282,3.4612,3.4612,3.4612,3.4612,3.4612,3.4612,3.4612,3.4612,3.4612,3.4666,3.4798,3.486,3.4964,0.0,0.0,1.5556,1.8264,1.8958,1.9281,2.045,2.1215,2.1843,2.2538,2.3187,2.3653,2.3782,2.3903,2.4177,2.4735,2.5195,2.5652,2.6052,2.6453,2.6691,2.6691,2.6691,2.6691,0.0,2.6691,2.6691,2.6691,2.6691,2.6691,2.6691,2.6691,2.6691,2.6691,2.6691,2.6691,2.6691,2.664,2.6623,2.6691,2.6418,2.6365,2.6485,2.6274,2.6202,2.6202,2.6202,2.6202,2.6202,2.6202,2.6202,2.6202,2.6203,2.638,2.664,2.6908,2.7307,2.7701,2.7701,2.7701,2.7701,2.7701,2.8228,2.886,2.886,2.9599,3.0425,3.0425,3.0689,3.0962,3.0962,3.098,3.0998,3.0998,3.0998,3.0998,3.0998,3.0998,3.0998,3.0998,3.0998,3.1252,3.2035,3.2162,3.2433,3.3212,3.3339,3.2759,3.1197,3.2019,3.2929,3.332,3.4057,3.4508,3.4508,3.4556,3.4564,3.4564,3.4594,3.4612,3.4612,3.4612,3.4612,3.4612,3.4612,3.4612,3.4612,3.4612,3.4666,3.4798,3.486,3.4964,0.0,0.0,1.6923,1.9019,1.9547,1.9661,2.0156,2.0696,2.1307,2.2035,2.2273,2.249,2.2981,2.3226,2.3478,2.3932,2.4837,2.5652,2.6034,2.6453,2.6691,2.6691,2.6691,0.0,0.0,0.0,0.0,2.6691,2.6691,2.6691,2.6691,2.6691,2.6691,2.6691,2.6691,2.6691,2.6691,2.6674,2.6674,2.6691,2.6521,2.6416,2.6365,2.6257,2.6202,2.6202,2.6202,2.6202,2.6202,2.6202,2.6202,2.6202,2.6202,2.6363,2.6606,2.6708,2.738,2.8171,2.7832,2.8052,2.8509,2.8509,2.9035,2.9702,2.9702,3.0077,3.0496,3.0496,3.1139,3.1799,3.1799,3.218,3.2596,3.2596,3.2596,3.2596,3.2596,3.2596,3.2596,3.2596,3.2596,3.2687,3.294,3.2995,3.3085,3.3357,3.3393,3.331,3.3028,3.3349,3.3752,3.4156,3.4433,3.4612,3.4612,3.4612,3.4612,3.4612,3.4612,3.4612,3.4612,3.4612,3.4612,3.4612,3.4612,3.4612,3.4612,3.4612,3.4623,3.4666,3.4831,3.4889,0.0,1.6539,1.7243,1.9066,1.9526,1.9604,1.9875,2.0384,2.0944,2.1465,2.1636,2.1845,2.2323,2.2735,2.3005,2.2952,2.4065,2.5075,2.544,2.5862,2.627,2.6657,2.6691,0.0,0.0,0.0,0.0,2.6691,2.6691,2.6691,2.6691,2.6691,2.6691,2.6691,2.6691,2.6691,2.6691,2.6691,2.6691,2.6657,2.6572,2.6451,2.6295,2.6276,2.6221,2.6202,2.6202,2.6202,2.6202,2.6202,2.6202,2.6202,2.6202,2.631,2.6501,2.6874,2.7504,2.8199,2.8035,2.8572,2.9334,2.9334,2.986,3.0492,3.0492,3.0908,3.1367,3.1367,3.1966,3.2632,3.2632,3.3013,3.3393,3.3393,3.3393,3.3393,3.3393,3.3393,3.3393,3.3393,3.3393,3.3393,3.3393,3.3393,3.3393,3.3393,3.3393,3.352,3.3842,3.3895,3.4049,3.445,3.4495,3.4517,3.4583,3.4612,3.4612,3.4612,3.4612,3.4612,3.4612,3.4612,3.4612,3.4612,3.4612,3.4612,3.4612,3.4902,3.5052,3.5082,3.5526,3.5699,1.5289,1.6154,1.6661,1.8499,1.8987,1.9172,1.9643,2.027,2.0795,2.0928,2.1282,2.1614,0.0,0.0,2.2682,2.1928,2.3014,2.4074,2.4406,2.487,2.5547,0.0,0.0,0.0,0.0,0.0,0.0,2.6691,0.0,2.6691,2.6691,2.6691,2.6691,2.6691,2.6691,2.6691,2.6691,2.6691,2.6657,2.6606,2.6589,2.6486,2.6313,2.6313,2.6259,2.6203,2.6202,2.6202,2.6202,2.6202,2.6202,2.6202,2.6202,2.6202,2.6321,2.7307,2.7717,2.7839,2.8405,2.9269,3.0143,3.0143,3.065,3.1247,3.1247,3.2039,3.29,3.29,3.3135,3.3393,3.3393,3.3393,3.3393,3.3393,3.3393,3.3393,3.3393,3.3393,3.3393,3.3393,3.3393,3.3393,3.3393,3.3393,3.3393,3.3393,3.3393,3.3481,3.3671,3.3698,3.3842,3.4245,3.4281,3.4381,3.458,3.4572,3.4602,3.4602,3.4612,3.4612,3.4612,3.4612,3.4631,3.4669,3.4669,3.4688,3.4744,3.5559,3.5953,3.5972,3.6809,3.7192,1.5627,1.6824,1.7716,1.8205,1.8963,1.9526,1.9265,1.9643,2.0104,2.0289,2.0046,1.9924,0.0,0.0,0.0,2.1931,2.3472,0.0,2.5169,2.5591,0.0,0.0,0.0,2.6691,2.6691,2.6691,0.0,0.0,2.6691,2.6691,2.6691,2.6691,2.6691,2.6691,2.6691,2.6691,2.6691,2.6691,2.6674,2.6674,2.6623,2.6572,2.652,2.6365,2.6295,2.6277,2.6221,2.6202,2.6202,2.6202,2.6202,2.6202,2.6202,2.6202,2.6303,2.709,2.7873,2.8648,2.9587,3.0231,3.0646,3.0847,3.144,3.209,3.209,3.2482,3.29,3.29,3.3135,3.3393,3.3393,3.3393,3.3393,3.3393,3.3393,3.3393,3.3393,3.3393,3.3393,3.3393,3.3393,3.3393,3.3393,3.3393,3.3393,3.3393,3.3393,3.3481,3.3671,3.3698,3.3807,3.4049,3.4074,3.4161,3.4351,3.4393,3.445,3.4602,3.4612,3.4612,3.4612,3.4612,3.4902,3.5559,3.5578,3.5859,3.6453,3.6697,3.6791,3.681,3.7073,3.7167,1.5665,1.6795,1.7628,1.7683,1.8578,1.9334,1.8804,1.9142,1.9521,1.9499,1.9125,0.0,0.0,0.0,0.0,0.0,0.0,0.0,2.4938,2.5234,2.5722,0.0,2.6691,0.0,2.6691,2.6691,2.6691,0.0,0.0,2.6691,2.6691,2.6691,2.6691,2.6691,2.6691,2.6691,2.6691,2.6691,2.6691,2.6691,2.6657,2.6623,2.6606,2.6469,2.6417,2.6399,0.0,2.631,2.624,2.624,2.6239,2.6202,2.6202,2.6402,2.6785,2.7535,2.8344,2.9233,3.0351,3.0907,3.1181,3.1584,3.207,3.249,3.249,3.2722,3.2995,3.2995,3.3198,3.3393,3.3393,3.3393,3.3393,3.3393,3.3393,3.3393,3.3393,3.3393,3.3393,3.3393,3.3393,3.3393,3.3393,3.3393,3.3393,3.3393,3.3393,3.3437,3.3549,3.3577,3.3661,3.386,3.3868,3.3947,3.4148,3.4245,3.434,3.4461,3.4539,3.4771,3.5146,3.5165,3.5559,3.6404,3.6423,3.6648,3.711,3.7437,3.7624,3.7655,3.8051,3.8221,1.5707,1.657,1.714,1.7174,1.8174,1.8948,1.8303,1.8697,1.9075,1.8637,0.0,0.0,1.9113,0.0,2.1154,2.1065,0.0,2.3593,2.4432,2.4596,2.5164,2.6539,2.6691,2.6691,2.6691,2.6691,2.6691,2.6691,2.6691,2.6691,2.6691,2.6691,2.6691,2.6691,2.6691,2.6691,2.6691,2.6691,2.6691,2.6691,2.6691,2.6674,2.6606,2.6589,2.6571,2.6502,0.0,0.0,2.6313,2.6295,2.6276,2.6203,2.6203,2.6651,2.74,2.8206,2.8882,2.9613,3.0783,3.1349,3.1635,3.2196,3.2456,3.2573,3.2639,3.285,3.307,3.3086,3.3241,3.3393,3.3393,3.3393,3.3393,3.3393,3.3393,3.3393,3.3393,3.3393,3.3393,3.3393,3.3393,3.3393,3.3393,3.3393,3.3393,3.3393,3.3393,3.3393,3.3393,3.3393,3.3466,3.3629,3.3657,3.3739,3.3947,3.4148,3.4269,3.4293,3.4596,3.5108,3.5878,3.601,3.6441,3.7242,3.726,3.7317,3.7429,3.8131,3.8469,3.8488,3.9251,3.9589,1.6454,1.7268,1.7793,1.7313,1.8447,1.9262,1.7815,1.8384,0.0,0.0,0.0,1.8128,1.8556,0.0,0.0,2.1601,0.0,0.0,0.0,0.0,2.5686,0.0,0.0,0.0,0.0,0.0,0.0,0.0,0.0,0.0,2.6691,2.6691,2.6691,2.6691,2.6691,2.6691,2.6691,2.6691,2.6691,2.6691,2.6691,2.6691,2.6691,2.664,2.6589,2.6555,0.0,0.0,2.645,2.6292,2.624,2.6277,2.6221,2.6651,2.74,2.8206,2.894,2.9732,3.0822,3.1483,3.1876,3.2161,3.2318,3.2491,3.2755,3.29,3.2963,3.307,3.3241,3.3393,3.3393,3.3393,3.3393,3.3393,3.3393,3.3393,3.3393,3.3393,3.3393,3.3393,3.3393,3.3393,3.3393,3.3393,3.3393,3.3393,3.3393,3.3393,3.3393,3.3393,3.3408,3.3452,3.3452,3.3534,3.3739,3.3934,3.4124,3.4293,3.5158,3.5747,3.5897,3.6535,3.7268,3.8075,3.8094,3.845,3.9176,3.9308,3.9364,3.9383,3.9533,3.9589,1.6239,1.6972,1.7562,1.7285,1.807,1.8656,1.7703,0.0,0.0,0.0,0.0,0.0,1.838,0.0,0.0,0.0,0.0,0.0,0.0,0.0,0.0,0.0,0.0,0.0,0.0,0.0,0.0,0.0,0.0,0.0,2.6691,2.6691,2.6691,2.6691,2.6691,2.6691,2.6691,2.6691,2.6691,2.6691,2.6691,2.6691,2.6691,2.6657,2.6657,2.664,0.0,0.0,2.6537,2.6329,2.6277,2.6295,2.6239,2.6975,2.8124,2.8679,2.9636,3.0802,3.1445,3.1878,3.2197,3.2386,3.2606,3.2771,3.2868,3.3026,3.3165,3.3241,3.3334,3.3393,3.3393,3.3393,3.3393,3.3393,3.3393,3.3393,3.3393,3.3393,3.3393,3.3393,3.3393,3.3393,3.3393,3.3393,3.3393,3.3393,3.3393,3.3393,3.3393,3.3393,3.3393,3.3393,3.3393,3.3481,3.3684,3.3881,3.4253,3.4895,3.5532,3.6273,3.7117,3.7512,3.8112,3.8957,3.8976,3.9176,3.9589,3.9589,3.9589,3.9589,3.9589,3.9589,1.6017,1.6719,1.7396,1.7396,1.7945,1.8333,1.7775,1.7773,0.0,0.0,0.0,0.0,0.0,0.0,0.0,0.0,0.0,0.0,0.0,0.0,0.0,0.0,0.0,0.0,0.0,0.0,0.0,0.0,0.0,0.0,0.0,2.6691,2.6691,2.6691,2.6691,2.6691,2.6691,2.6691,2.6691,2.6691,2.6691,2.6691,2.6691,2.6691,2.6691,2.6691,0.0,0.0,0.0,2.6417,2.6347,2.6329,2.6258,2.7284,2.8815,2.9106,3.0279,3.1786,3.2021,3.2265,3.2503,3.2602,3.2832,3.3039,3.3026,3.315,3.3349,3.3378,3.3393,3.3393,3.3393,3.3393,3.3393,3.3393,3.3393,3.3393,3.3393,3.3393,3.3393,3.3393,3.3393,3.3393,3.3393,3.3393,3.3393,3.3393,3.3393,3.3393,3.3393,3.3393,3.3393,3.3393,3.3437,3.3578,3.387,3.4118,3.4672,3.5634,3.6109,3.6939,3.8263,3.8488,3.8901,3.9589,3.9589,3.9589,3.9589,3.9589,3.9589,3.9589,3.9589,3.9589,1.6462,1.7352,1.8011,1.8011,1.8845,1.928,1.7836,0.0,0.0,0.0,0.0,0.0,0.0,0.0,0.0,0.0,0.0,0.0,0.0,0.0,0.0,0.0,0.0,0.0,0.0,0.0,0.0,0.0,0.0,0.0,0.0,2.6691,2.6691,2.6691,2.6691,2.6691,2.6691,2.6691,2.6691,2.6691,2.6691,2.6691,2.6691,2.6691,2.6691,2.6691,0.0,0.0,0.0,2.6537,2.6485,2.6468,2.6347,2.7321,2.8815,2.9106,3.0349,3.1895,3.2056,3.2401,3.2732,3.2503,3.2654,3.2979,3.3274,3.3241,3.318,3.3349,3.3393,3.3393,3.3393,3.3393,3.3393,3.3393,3.3393,3.3393,3.3393,3.3393,3.3393,3.3393,3.3393,3.3393,3.3393,3.3393,3.3393,3.3393,3.3393,3.3393,3.3393,3.3393,3.3393,3.3393,3.3563,3.3897,3.4471,3.4866,3.5438,3.6273,3.7238,3.7953,3.8288,3.9051,3.9514,3.9589,3.9589,3.9589,3.9589,3.9589,3.9589,3.9589,3.9589,3.9589,1.603,1.656,1.7073,1.7902,1.7997,1.7892,1.8006,0.0,0.0,0.0,1.7115,1.7475,1.8344,0.0,0.0,0.0,0.0,0.0,0.0,0.0,0.0,0.0,0.0,0.0,0.0,0.0,0.0,0.0,0.0,0.0,0.0,2.6691,2.6691,2.6691,2.6691,2.6691,2.6691,2.6691,2.6691,2.6691,2.6691,2.6691,2.6691,2.6691,2.6691,2.6691,0.0,0.0,0.0,2.6555,2.652,2.6537,2.6382,2.7142,2.8421,2.9248,3.0453,3.1771,3.2606,3.2988,3.3147,3.3039,3.3086,3.3196,3.3211,3.3241,3.3304,3.3364,3.3393,3.3393,3.3393,3.3393,3.3393,3.3393,3.3393,3.3393,3.3393,3.3393,3.3393,3.3393,3.3393,3.3393,3.3393,3.3393,3.3393,3.3393,3.3393,3.3393,3.3393,3.3393,3.3393,3.3393,3.3466,3.3862,3.471,3.5028,3.5589,3.6517,3.7131,3.7485,3.7568,3.8375,3.8826,3.8826,3.9326,3.9589,3.9589,3.9589,3.9589,3.9589,3.9589,3.9589,1.5779,1.6324,1.6905,1.8066,1.7832,1.7517,0.0,0.0,0.0,1.7084,1.724,1.7618,1.8364,1.8611,1.8898,0.0,0.0,0.0,0.0,0.0,0.0,0.0,0.0,0.0,0.0,0.0,0.0,0.0,0.0,0.0,0.0,0.0,2.6691,2.6691,2.6691,2.6691,2.6691,2.6691,2.6691,2.6691,2.6691,2.6691,2.6691,2.6691,2.6691,0.0,0.0,0.0,0.0,2.6589,2.6623,2.6725,2.659,2.7216,2.8337,2.9459,3.0603,3.1738,3.2895,3.3349,3.3393,3.3393,3.3393,3.3364,3.3226,3.3304,3.3393,3.3393,3.3393,3.3393,3.3393,3.3393,3.3393,3.3393,3.3393,3.3393,3.3393,3.3393,3.3393,3.3393,3.3393,3.3393,3.3393,3.3393,3.3393,3.3393,3.3393,3.3393,3.3393,3.3393,3.3502,3.3737,3.3755,3.4141,3.5086,3.5353,3.5878,3.6827,3.6895,3.6931,3.7009,3.7619,3.8056,3.83,3.8901,3.9345,3.9589,3.9589,3.9589,3.9589,3.9589,3.9589,1.5956,1.7059,1.8054,1.8789,1.8989,1.8882,0.0,0.0,0.0,0.0,1.7516,1.7928,1.8403,1.8822,1.9232,1.9636,0.0,0.0,0.0,0.0,0.0,0.0,0.0,0.0,0.0,0.0,0.0,0.0,0.0,0.0,0.0,0.0,2.6691,2.6691,2.6691,2.6691,2.6691,2.6691,2.6691,2.6691,2.6691,2.6691,2.6691,2.6691,0.0,0.0,0.0,0.0,0.0,2.6691,2.6858,2.7085,2.7085,2.7741,2.8804,2.9746,3.0776,3.1826,3.2786,3.3226,3.3393,3.3393,3.3393,3.3393,3.3393,3.3393,3.3393,3.3393,3.3393,3.3393,3.3393,3.3393,3.3393,3.3393,3.3393,3.3393,3.3393,3.3393,3.3393,3.3393,3.3393,3.3393,3.3393,3.3393,3.3393,3.3393,3.3393,3.3393,3.3393,3.3393,3.3719,3.4516,3.4588,3.4899,3.5713,3.5967,3.6427,3.7226,3.673,3.6539,3.6795,3.6998,3.7493,3.8281,3.8319,3.8732,3.9589,3.9589,3.9589,3.9589,3.9589,3.9589,1.4991,1.5754,1.6439,1.7187,1.7398,1.7501,1.7753,0.0,0.0,0.0,1.7455,1.7928,1.8403,1.8822,1.9232,1.9636,1.9726,0.0,0.0,0.0,0.0,0.0,0.0,0.0,0.0,0.0,0.0,0.0,0.0,0.0,0.0,0.0,2.6691,2.6691,2.6691,2.6691,2.6691,2.6691,2.6691,2.6691,2.6691,2.6691,2.6691,2.6691,0.0,0.0,0.0,0.0,0.0,2.6691,2.6741,2.6841,2.7038,2.7272,2.7678,2.8912,2.9933,3.0902,3.1963,3.2823,3.3393,3.3393,3.3393,3.3393,3.3393,3.3393,3.3393,3.3393,3.3393,3.3393,3.3393,3.3393,3.3393,3.3393,3.3393,3.3393,3.3393,3.3393,3.3393,3.3393,3.3393,3.3393,3.3393,3.3393,3.3393,3.3393,3.3393,3.3393,3.3393,3.3882,3.4317,3.4555,3.5584,3.6327,3.6614,3.6289,3.6278,3.665,3.611,3.5653,3.53,3.5931,3.6648,3.7455,3.8019,3.8732,3.9589,3.9589,3.9589,3.9589,3.9589,3.9589,0.0,1.5422,1.6011,1.6763,1.6943,0.0,0.0,0.0,0.0,0.0,0.0,1.8147,1.8442,1.8955,1.9417,1.9672,1.9726,0.0,0.0,0.0,0.0,0.0,0.0,0.0,0.0,0.0,0.0,0.0,0.0,0.0,0.0,0.0,2.6691,2.6691,2.6691,2.6691,2.6691,2.6691,2.6691,2.6691,2.6691,2.6691,2.6691,0.0,0.0,0.0,0.0,0.0,0.0,2.6691,2.6775,2.6907,2.7069,2.7213,2.7488,2.8622,2.9639,3.0633,3.1634,3.2588,3.3393,3.3393,3.3393,3.3393,3.3393,3.3393,3.3393,3.3393,3.3393,3.3393,3.3393,3.3393,3.3393,3.3393,3.3393,3.3393,3.3393,3.3393,3.3393,3.3393,3.3393,3.3393,3.3393,3.3393,3.3393,3.3393,3.3393,3.3393,3.3393,3.4099,3.4718,3.5007,3.6218,3.6995,3.6995,3.6375,3.5911,3.5736,3.5243,3.4785,3.44,3.5042,3.5803,3.6641,3.7437,3.8263,3.912,3.9439,3.9589,3.9589,3.9589,3.9589,0.0,0.0,0.0,0.0,0.0,0.0,0.0,0.0,0.0,0.0,0.0,1.8461,1.8481,1.9128,1.9672,1.9708,1.9744,0.0,0.0,0.0,0.0,0.0,0.0,0.0,0.0,0.0,0.0,0.0,0.0,0.0,0.0,0.0,0.0,2.6691,2.6691,2.6691,2.6691,2.6691,2.6691,2.6691,2.6691,2.6691,2.6691,0.0,0.0,0.0,0.0,0.0,0.0,2.6691,2.6907,2.7197,2.7228,2.7519,2.7986,2.8761,2.9747,3.0826,3.1556,3.2469,3.3321,3.3375,3.3393,3.3393,3.3393,3.3393,3.3393,3.3393,3.3393,3.3393,3.3393,3.3393,3.3393,3.3393,3.3393,3.3393,3.3393,3.3393,3.3393,3.3393,3.3393,3.3393,3.3393,3.3393,3.3393,3.3393,3.3393,3.3429,3.3484,3.419,3.4989,3.5786,3.6544,3.6977,3.6922,3.6236,3.5457,3.4676,3.4225,3.3985,3.4023,3.4374,3.5004,3.5878,3.6742,3.7568,3.8394,3.9214,3.9589,3.9589,3.9589,3.9589,0.0,0.0,0.0,0.0,0.0,0.0,0.0,0.0,0.0,0.0,0.0,1.8068,1.8422,1.8917,1.9343,1.9654,0.0,0.0,0.0,0.0,0.0,0.0,0.0,0.0,0.0,0.0,0.0,0.0,0.0,0.0,0.0,0.0,0.0,2.6691,2.6691,2.6691,2.6691,2.6691,2.6691,2.6691,2.6691,2.6691,2.6691,0.0,0.0,0.0,0.0,0.0,0.0,2.6691,2.6907,2.7228,2.7491,2.7713,2.7943,2.8401,2.9125,2.9998,3.0776,3.1686,3.2578,3.3194,3.3393,3.3393,3.3393,3.3393,3.3393,3.3393,3.3393,3.3393,3.3393,3.3393,3.3393,3.3393,3.3393,3.3393,3.3393,3.3393,3.3393,3.3393,3.3393,3.3393,3.3393,3.3393,3.3393,3.3393,3.3393,3.3628,3.4244,3.5007,3.5838,3.6616,3.6886,3.6759,3.6127,3.5912,3.552,3.4878,3.4151,3.3908,3.4221,3.4316,3.4862,3.5878,3.7286,3.8432,3.9289,3.9495,3.9589,3.9589,3.9589,3.9589,0.0,0.0,0.0,0.0,0.0,0.0,0.0,0.0,0.0,0.0,0.0,0.0,1.8403,0.0,0.0,0.0,0.0,0.0,0.0,0.0,0.0,0.0,0.0,0.0,0.0,0.0,0.0,0.0,0.0,0.0,0.0,0.0,0.0,0.0,2.6691,2.6691,2.6691,2.6691,2.6691,2.6691,2.6691,2.6691,2.6691,0.0,0.0,0.0,0.0,0.0,2.6691,2.6691,2.6907,2.7213,2.74,2.7681,2.8006,2.8192,2.886,2.9805,3.0617,3.1707,3.2814,3.3266,3.3393,3.3393,3.3393,3.3393,3.3393,3.3393,3.3393,3.3393,3.3393,3.3393,3.3393,3.3393,3.3393,3.3393,3.3393,3.3393,3.3393,3.3393,3.3393,3.3393,3.3393,3.3393,3.3393,3.3393,3.3393,3.3701,3.4516,3.5297,3.6109,3.6904,3.6995,3.6669,3.5858,3.546,3.4942,3.4258,3.3899,3.3829,3.4148,3.4245,3.4983,3.6423,3.7681,3.8732,3.9589,3.9589,3.9589,3.9589,3.9589,3.9589,0.0,0.0,0.0,0.0,0.0,0.0,0.0,0.0,0.0,0.0,0.0,0.0,0.0,0.0,0.0,0.0,0.0,0.0,0.0,0.0,0.0,0.0,0.0,0.0,0.0,0.0,0.0,0.0,0.0,0.0,0.0,0.0,0.0,0.0,2.6674,2.6691,2.6691,2.6691,2.6691,2.6691,2.6691,2.6691,2.6691,2.6691,0.0,0.0,0.0,0.0,2.6691,2.6691,2.694,2.7276,2.7276,2.7651,2.817,2.817,2.8797,2.9748,3.069,3.1962,3.3248,3.3357,3.3393,3.3393,3.3393,3.3393,3.3393,3.3393,3.3393,3.3393,3.3393,3.3393,3.3393,3.3393,3.3393,3.3393,3.3393,3.3393,3.3393,3.3393,3.3393,3.3393,3.3393,3.3393,3.3393,3.3393,3.3502,3.3882,3.4679,3.5494,3.629,3.7104,3.6959,3.6544,3.5858,3.4953,3.4135,3.3447,3.3563,3.3766,3.3985,3.4351,3.5355,3.7073,3.7887,3.8732,3.9589,3.9589,3.9589,3.9589,3.9589,3.9589,0.0,0.0,0.0,0.0,0.0,0.0,0.0,0.0,0.0,0.0,0.0,0.0,0.0,0.0,0.0,0.0,0.0,0.0,0.0,0.0,0.0,0.0,0.0,0.0,0.0,0.0,0.0,0.0,0.0,0.0,0.0,0.0,0.0,0.0,0.0,2.6691,2.6691,2.6691,2.6691,2.6691,2.6691,2.6691,2.6691,2.6691,2.6691,0.0,0.0,0.0,2.6691,2.6691,2.7068,2.7609,2.7609,2.7986,2.8518,2.8518,2.8634,2.8998,3.0477,3.1614,3.2488,3.3176,3.3393,3.3393,3.3393,3.3393,3.3393,3.3393,3.3393,3.3393,3.3393,3.3393,3.3393,3.3393,3.3393,3.3393,3.3393,3.3393,3.3393,3.3393,3.3393,3.3393,3.3393,3.3393,3.3393,3.3393,3.3991,3.4715,3.5514,3.6327,3.7122,3.7937,3.6798,3.5931,3.5804,3.4443,3.3538,3.3411,3.3422,3.3601,3.3985,3.5079,3.6118,3.7091,3.7887,3.8732,3.9589,3.9589,3.9589,3.9589,3.9589,3.9589,0.0,0.0,0.0,0.0,0.0,0.0,0.0,0.0,0.0,0.0,0.0,0.0,0.0,0.0,0.0,0.0,0.0,0.0,0.0,0.0,0.0,0.0,0.0,0.0,0.0,0.0,0.0,0.0,0.0,0.0,0.0,0.0,0.0,0.0,0.0,0.0,2.6691,2.6691,2.6691,2.6691,2.6691,2.6691,2.6691,2.6691,2.6691,0.0,0.0,2.6691,2.6691,2.6691,2.6988,2.7461,2.7642,2.7957,2.8352,2.8531,2.8871,2.9409,3.0586,3.1528,3.2325,3.314,3.3393,3.3393,3.3393,3.3393,3.3393,3.3393,3.3393,3.3393,3.3393,3.3393,3.3393,3.3393,3.3393,3.3393,3.3393,3.3393,3.3393,3.3393,3.3393,3.3393,3.3393,3.3393,3.3393,3.3393,3.4081,3.4881,3.5695,3.649,3.714,3.7502,3.6508,3.5623,3.5188,3.4081,3.3393,3.3393,3.3605,3.4004,3.4626,3.588,3.693,3.7718,3.8563,3.9195,3.9589,3.9589,3.9589,3.9589,3.9589,3.9589,1.3349,0.0,0.0,0.0,0.0,0.0,0.0,0.0,0.0,0.0,0.0,0.0,0.0,0.0,0.0,0.0,0.0,0.0,0.0,0.0,0.0,0.0,0.0,0.0,0.0,0.0,0.0,0.0,0.0,0.0,0.0,0.0,0.0,0.0,0.0,0.0,2.6691,2.6691,2.6691,2.6691,2.6691,2.6691,2.6691,2.6691,2.6691,2.6691,2.6691,2.6691,2.6691,2.6691,2.6907,2.7228,2.7474,2.7797,2.8143,2.8479,2.8993,2.9658,3.0672,3.1401,3.2071,3.3085,3.3393,3.3393,3.3393,3.3393,3.3393,3.3393,3.3393,3.3393,3.3393,3.3393,3.3393,3.3393,3.3393,3.3393,3.3393,3.3393,3.3393,3.3393,3.3393,3.3393,3.3393,3.3393,3.3393,3.3393,3.4262,3.5098,3.5713,3.6671,3.7212,3.7013,3.6272,3.5388,3.4407,3.3755,3.3393,3.3393,3.378,3.4349,3.5161,3.6422,3.7474,3.8281,3.9157,3.9589,3.9589,3.9589,3.9589,3.9589,3.9589,3.9589,1.3395,1.4571,0.0,0.0,0.0,0.0,0.0,0.0,0.0,0.0,0.0,0.0,0.0,0.0,0.0,0.0,0.0,0.0,0.0,0.0,0.0,0.0,0.0,0.0,0.0,0.0,0.0,0.0,0.0,0.0,0.0,0.0,0.0,0.0,0.0,0.0,2.6691,2.6691,2.6691,2.6691,2.6691,2.6691,2.6691,2.6691,2.6691,2.6691,2.6691,2.6691,2.6691,2.6691,2.6907,2.7197,2.7228,2.7592,2.8143,2.8479,2.8636,2.8907,3.0459,3.1053,3.1342,3.2904,3.3393,3.3393,3.3393,3.3393,3.3393,3.3393,3.3393,3.3393,3.3393,3.3393,3.3393,3.3393,3.3393,3.3393,3.3393,3.3393,3.3393,3.3393,3.3393,3.3393,3.3393,3.3393,3.3393,3.3393,3.4718,3.5731,3.5786,3.7142,3.7828,3.7085,3.6272,3.517,3.3628,3.3429,3.3393,3.3393,3.378,3.4349,3.5161,3.6422,3.7474,3.8281,3.9157,3.9589,3.9589,3.9589,3.9589,3.9589,3.9589,3.9589,1.3445,1.4724,0.0,0.0,0.0,0.0,0.0,0.0,0.0,0.0,0.0,0.0,0.0,0.0,0.0,0.0,0.0,0.0,0.0,0.0,0.0,0.0,0.0,0.0,0.0,0.0,0.0,0.0,0.0,0.0,0.0,0.0,0.0,0.0,0.0,0.0,0.0,2.6691,2.6691,2.6691,2.6691,2.6691,2.6691,2.6691,2.6691,2.6691,2.6691,2.6691,2.6691,2.6691,2.6775,2.694,2.7353,2.7754,2.8143,2.8479,2.86,2.8763,2.9862,3.0581,3.1166,3.2288,3.2995,3.3393,3.3393,3.3393,3.3393,3.3393,3.3393,3.3393,3.3393,3.3393,3.3393,3.3393,3.3393,3.3393,3.3393,3.3393,3.3393,3.3393,3.3393,3.3393,3.3393,3.3393,3.3574,3.4081,3.508,3.5967,3.6472,3.752,3.7685,3.6381,3.5095,3.4063,3.3447,3.3393,3.3452,3.3577,3.432,3.5138,3.5964,3.7187,3.8244,3.9101,3.9439,3.9589,3.9589,3.9589,3.9589,3.9589,3.9589,3.9589,1.405,1.506,0.0,0.0,0.0,0.0,0.0,0.0,0.0,0.0,0.0,0.0,0.0,0.0,0.0,0.0,0.0,0.0,0.0,0.0,0.0,0.0,0.0,0.0,0.0,0.0,0.0,0.0,0.0,0.0,0.0,0.0,0.0,0.0,0.0,0.0,0.0,2.6691,2.6691,2.6691,2.6691,2.6691,2.6691,2.6691,2.6691,2.6691,2.6691,2.6691,2.6691,2.6691,2.6691,2.6775,2.7444,2.7815,2.8024,2.8453,2.86,2.8726,2.9518,3.0328,3.1129,3.1926,3.2741,3.3393,3.3393,3.3393,3.3393,3.3393,3.3393,3.3393,3.3393,3.3393,3.3393,3.3393,3.3393,3.3393,3.3393,3.3393,3.3393,3.3393,3.3393,3.3393,3.3393,3.3393,3.3665,3.448,3.5279,3.6091,3.6904,3.7701,3.7576,3.5967,3.4371,3.3393,3.3393,3.3393,3.3495,3.3684,3.4889,3.5898,3.6584,3.7692,3.8713,3.957,3.9589,3.9589,3.9589,3.9589,3.9589,3.9589,3.9589,3.9739,0.0,0.0,0.0,0.0,0.0,0.0,0.0,0.0,0.0,0.0,0.0,0.0,0.0,0.0,0.0,0.0,0.0,0.0,0.0,0.0,0.0,0.0,0.0,0.0,0.0,0.0,0.0,0.0,0.0,0.0,0.0,0.0,0.0,0.0,0.0,0.0,0.0,2.6691,2.6691,2.6691,2.6691,2.6691,2.6691,2.6691,2.6691,2.6691,2.6691,2.6691,2.6691,2.6691,2.6691,2.6775,2.7428,2.7701,2.7774,2.8375,2.8587,2.8708,2.9513,3.0328,3.1143,3.1926,3.2741,3.3393,3.3393,3.3393,3.3393,3.3393,3.3393,3.3393,3.3393,3.3393,3.3393,3.3393,3.3393,3.3393,3.3393,3.3393,3.3393,3.3393,3.3393,3.3393,3.3393,3.3393,3.3683,3.4498,3.5279,3.6091,3.6904,3.7701,3.7558,3.5967,3.4371,3.3393,3.3393,3.3393,3.3495,3.3703,3.5468,3.6602,3.6795,3.7772,3.8713,3.957,3.9589,3.9589,3.9589,3.9589,3.9589,3.9589,3.9589,4.004,1.4076,0.0,0.0,0.0,0.0,0.0,0.0,0.0,0.0,0.0,0.0,0.0,0.0,0.0,0.0,0.0,0.0,0.0,0.0,0.0,0.0,0.0,0.0,0.0,0.0,0.0,0.0,0.0,0.0,0.0,0.0,0.0,0.0,0.0,0.0,0.0,0.0,0.0,2.6691,2.6691,2.6691,2.6691,2.6691,2.6691,2.6691,2.6691,2.6691,2.6691,2.6691,2.6691,2.6691,2.6792,2.7749,2.7944,2.7798,2.8756,2.8874,2.8636,2.8871,2.9844,3.1053,3.1274,3.227,3.3393,3.3393,3.3393,3.3393,3.3393,3.3393,3.3393,3.3393,3.3393,3.3393,3.3393,3.3393,3.3393,3.3393,3.3393,3.3393,3.3393,3.3393,3.3393,3.3393,3.3393,3.3864,3.5243,3.5641,3.6309,3.7683,3.7051,3.6345,3.584,3.4371,3.3393,3.3393,3.3393,3.3731,3.4493,3.5782,3.6602,3.6795,3.8346,3.9345,3.9589,3.9589,3.9589,3.9589,3.9589,3.9589,3.9589,3.9589,4.004,0.0,0.0,0.0,0.0,0.0,0.0,0.0,0.0,0.0,0.0,0.0,0.0,0.0,0.0,0.0,0.0,0.0,0.0,0.0,0.0,0.0,0.0,0.0,0.0,0.0,0.0,0.0,0.0,0.0,0.0,0.0,0.0,0.0,0.0,0.0,0.0,0.0,0.0,0.0,2.6691,2.6691,2.6691,2.6691,2.6691,2.6691,2.6691,2.6691,2.6691,2.6691,2.6691,2.6691,2.6826,2.7876,2.798,2.7654,2.8847,2.8921,2.8422,2.8543,2.9649,3.0998,3.0998,3.2089,3.3393,3.3393,3.3393,3.3393,3.3393,3.3393,3.3393,3.3393,3.3393,3.3393,3.3393,3.3393,3.3393,3.3393,3.3393,3.3393,3.3393,3.3393,3.3393,3.3393,3.3393,3.3954,3.555,3.6345,3.7105,3.8082,3.6798,3.5804,3.5804,3.4371,3.3393,3.3393,3.3393,3.3826,3.484,3.5915,3.6719,3.7267,3.8777,3.9589,3.9589,3.9589,3.9589,3.9589,3.9589,3.9589,3.9589,3.9589,4.0209,0.0,0.0,0.0,0.0,0.0,0.0,0.0,0.0,0.0,0.0,0.0,0.0,0.0,0.0,0.0,0.0,0.0,0.0,0.0,0.0,0.0,0.0,0.0,0.0,0.0,0.0,0.0,0.0,0.0,0.0,0.0,0.0,0.0,0.0,0.0,0.0,0.0,0.0,0.0,0.0,2.6691,2.6691,2.6691,2.6691,2.6691,2.6691,2.6691,2.6691,2.6691,2.6691,2.6742,2.6894,2.7945,2.7923,2.7466,2.885,2.8831,2.8143,2.8492,2.9649,3.0998,3.0998,3.2089,3.3393,3.3393,3.3393,3.3393,3.3393,3.3393,3.3393,3.3393,3.3393,3.3393,3.3393,3.3393,3.3393,3.3393,3.3393,3.3393,3.3393,3.3393,3.3393,3.3393,3.3393,3.3954,3.555,3.716,3.8209,3.8209,3.6798,3.5804,3.5804,3.4371,3.3393,3.3393,3.3393,3.3844,3.4921,3.5938,3.6983,3.8035,3.9064,3.9589,3.9589,3.9589,3.9589,3.9589,3.9589,3.9589,3.9589,3.9683,4.0534,0.0,0.0,0.0,0.0,0.0,0.0,0.0,0.0,0.0,0.0,0.0,0.0,0.0,0.0,0.0,0.0,0.0,0.0,0.0,0.0,0.0,0.0,0.0,0.0,0.0,0.0,0.0,0.0,0.0,0.0,0.0,0.0,0.0,0.0,0.0,0.0,2.6691,2.6691,2.6691,0.0,2.6691,2.6691,2.6691,2.6691,2.6691,2.6691,2.6691,2.6691,2.6691,2.6691,2.7046,2.7655,2.8505,2.8545,2.8211,2.9346,2.9054,2.8143,2.8492,2.9649,3.0998,3.0998,3.2089,3.3393,3.3393,3.3393,3.3393,3.3393,3.3393,3.3393,3.3393,3.3393,3.3393,3.3393,3.3393,3.3393,3.3393,3.3393,3.3393,3.3393,3.3393,3.3393,3.3393,3.3393,3.3954,3.555,3.716,3.8209,3.8209,3.6798,3.5804,3.5804,3.4371,3.3393,3.3393,3.3393,3.4024,3.552,3.6166,3.7156,3.865,3.9274,3.9589,3.9589,3.9589,3.9589,3.9589,3.9589,3.9589,3.9627,4.0253,4.1079,0.0,0.0,0.0,0.0,0.0,0.0,0.0,0.0,0.0,0.0,0.0,0.0,0.0,0.0,0.0,0.0,0.0,0.0,0.0,0.0,0.0,0.0,0.0,0.0,0.0,0.0,0.0,0.0,0.0,0.0,0.0,0.0,0.0,0.0,0.0,0.0,2.6691,2.6691,2.6691,2.6691,2.6691,2.6691,2.6691,2.6691,2.6691,2.6691,2.6691,2.6691,2.6725,2.708,2.7452,2.7925,2.9076,2.9169,2.8716,2.9401,2.9039,2.8214,2.8331,2.9409,3.08,3.0957,3.2089,3.3393,3.3393,3.3393,3.3393,3.3393,3.3393,3.3393,3.3393,3.3393,3.3393,3.3393,3.3393,3.3393,3.3393,3.3393,3.3393,3.3393,3.3393,3.3393,3.3393,3.4045,3.4969,3.6182,3.7413,3.8209,3.8209,3.6798,3.5804,3.5804,3.4371,3.3393,3.3393,3.3393,3.4099,3.5695,3.6128,3.709,3.8836,3.9229,3.947,3.9608,3.9589,3.9589,3.9589,3.9589,3.9589,3.9627,4.0422,4.1229,0.0,0.0,0.0,0.0,0.0,0.0,0.0,0.0,0.0,0.0,0.0,0.0,0.0,0.0,0.0,0.0,0.0,0.0,0.0,0.0,0.0,0.0,0.0,0.0,0.0,0.0,0.0,0.0,0.0,0.0,0.0,0.0,0.0,0.0,0.0,2.6691,2.6691,2.6691,2.6691,2.6691,2.6691,2.6691,2.6691,2.6691,2.6691,2.6691,2.6691,2.6691,2.6759,2.7503,2.7874,2.8145,2.9548,2.9736,2.9216,2.935,2.8921,2.8277,2.8159,2.9151,3.0549,3.0884,3.2089,3.3393,3.3393,3.3393,3.3393,3.3393,3.3393,3.3393,3.3393,3.3393,3.3393,3.3393,3.3393,3.3393,3.3393,3.3393,3.3393,3.3393,3.3393,3.3447,3.3592,3.4842,3.6073,3.6886,3.7683,3.8209,3.8209,3.6798,3.5804,3.5804,3.4371,3.3393,3.3393,3.3393,3.4099,3.5695,3.5994,3.6927,3.8763,3.9059,3.9309,3.9527,3.9577,3.9589,3.9589,3.9589,3.9664,3.9833,4.0628,4.1441,0.0,0.0,0.0,0.0,0.0,0.0,0.0,0.0,0.0,0.0,0.0,0.0,0.0,0.0,0.0,0.0,0.0,0.0,0.0,0.0,0.0,0.0,0.0,0.0,0.0,0.0,0.0,0.0,0.0,0.0,0.0,0.0,2.601,2.6485,2.6572,0.0,2.6691,2.6691,2.6691,2.6691,2.6691,2.6691,2.6691,2.6691,2.6691,2.6691,2.6691,2.6691,2.6759,2.7503,2.8196,2.8925,2.977,3.004,2.9909,2.9539,2.8921,2.8277,2.8159,2.9151,3.0549,3.0884,3.2089,3.3393,3.3393,3.3393,3.3393,3.3393,3.3393,3.3393,3.3393,3.3393,3.3393,3.3393,3.3393,3.3393,3.3393,3.3393,3.3393,3.3393,3.3393,3.3628,3.4317,3.5188,3.6073,3.6886,3.7683,3.8209,3.8209,3.6798,3.5804,3.5804,3.4371,3.3393,3.3393,3.3393,3.4099,3.5695,3.5994,3.6838,3.8483,3.897,3.921,3.9237,3.947,3.9589,3.9589,3.9589,3.9965,4.0666,4.146,4.2286,0.0,0.0,0.0,0.0,0.0,0.0,0.0,0.0,0.0,0.0,0.0,0.0,0.0,0.0,0.0,0.0,0.0,0.0,0.0,0.0,0.0,0.0,0.0,0.0,0.0,0.0,0.0,0.0,0.0,0.0,0.0,2.5384,2.583,2.61,2.6434,0.0,2.6691,2.6691,2.6691,2.6691,2.6691,2.6691,2.6691,2.6691,2.6691,2.6691,2.6691,2.6928,2.7367,2.8146,2.8924,2.9685,3.0429,3.0717,3.0584,2.9564,2.897,2.8596,2.7859,2.8775,3.0328,3.0625,3.1942,3.3393,3.3393,3.3393,3.3393,3.3393,3.3393,3.3393,3.3393,3.3393,3.3393,3.3393,3.3393,3.3393,3.3393,3.3393,3.3393,3.3393,3.3393,3.381,3.5062,3.5569,3.6236,3.7484,3.7973,3.8209,3.8209,3.6798,3.5804,3.5804,3.4371,3.3393,3.3393,3.3393,3.4099,3.5695,3.5893,3.669,3.8436,3.8844,3.9073,3.9197,3.9458,3.9589,3.9589,3.9589,4.0021,4.0816,4.1629,4.2474,0.0,0.0,0.0,0.0,0.0,0.0,0.0,0.0,0.0,0.0,0.0,0.0,0.0,0.0,0.0,0.0,0.0,0.0,0.0,0.0,0.0,0.0,0.0,0.0,0.0,0.0,0.0,0.0,0.0,0.0,2.4451,2.5114,2.5647,2.5975,2.6365,2.6606,2.6691,2.6691,2.6691,2.6691,2.6691,2.6691,2.6691,2.6691,2.6691,2.6691,2.6691,2.7131,2.7858,2.8671,2.9431,3.0176,3.0903,3.119,3.1004,2.9551,2.8993,2.8827,2.7617,2.8407,2.9985,3.028,3.1625,3.3117,3.3117,3.3178,3.3256,3.3256,3.3316,3.3393,3.3393,3.3393,3.3393,3.3393,3.3393,3.3393,3.3393,3.3393,3.3393,3.3393,3.3393,3.3918,3.5514,3.5804,3.6363,3.7973,3.8209,3.8209,3.8209,3.6798,3.5804,3.5804,3.4371,3.3393,3.3393,3.3393,3.4099,3.5695,3.5804,3.6588,3.8344,3.8728,3.8964,3.9115,3.9432,3.9589,3.9589,3.9589,4.0115,4.1116,4.1723,4.2567,0.0,0.0,0.0,0.0,0.0,0.0,0.0,0.0,0.0,0.0,0.0,0.0,0.0,0.0,0.0,0.0,0.0,0.0,0.0,0.0,0.0,0.0,0.0,0.0,0.0,0.0,0.0,0.0,0.0,0.0,2.4843,2.4922,2.5422,2.6433,2.6485,2.6572,2.6691,2.6691,2.6691,2.6691,2.6691,2.6691,2.6691,2.6691,2.6691,2.6691,2.6691,2.7131,2.7858,2.8671,2.9431,3.0176,3.0903,3.119,3.1004,2.9551,2.8993,2.8827,2.7617,2.8212,2.9591,2.9919,3.1068,3.2351,3.2351,3.2586,3.2827,3.2827,3.3099,3.3393,3.3393,3.3393,3.3393,3.3393,3.3393,3.3393,3.3393,3.3393,3.3393,3.3393,3.3393,3.3918,3.5514,3.5804,3.6363,3.7973,3.8209,3.8209,3.8209,3.6798,3.5804,3.5804,3.4371,3.3393,3.3393,3.3393,3.4099,3.5695,3.5804,3.6526,3.8153,3.867,3.8892,3.8925,3.9367,3.9589,3.9589,3.9589,4.0403,4.1948,4.1986,4.2887,0.0,0.0,0.0,0.0,0.0,0.0,0.0,0.0,0.0,0.0,0.0,0.0,0.0,0.0,0.0,0.0,0.0,0.0,0.0,0.0,0.0,0.0,0.0,0.0,0.0,0.0,0.0,0.0,0.0,0.0,2.4492,2.4759,2.5098,2.5519,2.6154,2.6572,2.6691,2.6691,2.6691,2.6691,2.6691,2.6691,2.6691,2.6691,2.6691,2.6725,2.7199,2.7858,2.8586,2.8891,2.9721,3.0835,3.1089,3.119,3.1004,2.9551,2.8993,2.8791,2.7368,2.803,2.9523,2.964,3.0869,3.23,3.23,3.2368,3.2518,3.2731,3.2908,3.3083,3.3316,3.3393,3.3393,3.3393,3.3393,3.3393,3.3393,3.3393,3.3393,3.3393,3.3393,3.3918,3.5514,3.5804,3.6363,3.7973,3.8209,3.8209,3.8209,3.6798,3.5804,3.5804,3.4371,3.3393,3.3393,3.3393,3.4099,3.5695,3.5804,3.6526,3.8136,3.8655,3.891,3.891,3.9354,3.9589,3.9589,4.0115,4.0929,4.2004,4.2581,4.3426,0.0,0.0,0.0,0.0,0.0,0.0,0.0,0.0,0.0,0.0,0.0,0.0,0.0,0.0,0.0,0.0,0.0,0.0,0.0,0.0,0.0,0.0,0.0,0.0,0.0,0.0,0.0,0.0,0.0,0.0,2.4281,2.4553,2.4883,2.5256,2.6119,2.6606,2.6691,2.6691,2.6691,2.6691,2.6691,2.6691,2.6691,2.6691,2.6691,2.6742,2.7486,2.8264,2.9027,2.9281,3.0091,3.119,3.119,3.119,3.1004,2.9551,2.8993,2.879,2.7233,2.7862,2.9334,2.9334,3.0524,3.1914,3.1914,3.2003,3.2162,3.2535,3.2715,3.2892,3.3286,3.3393,3.3393,3.3393,3.3393,3.3393,3.3393,3.3393,3.3393,3.3393,3.3393,3.3918,3.5514,3.5804,3.6363,3.7973,3.8209,3.8209,3.8209,3.6798,3.5804,3.5804,3.4371,3.3393,3.3393,3.3393,3.4099,3.5695,3.5804,3.6526,3.8136,3.8559,3.8803,3.891,3.9269,3.9514,3.9589,4.0403,4.121,4.2023,4.29,4.3726,0.0,0.0,0.0,0.0,0.0,0.0,0.0,0.0,0.0,0.0,0.0,0.0,0.0,0.0,0.0,0.0,0.0,0.0,0.0,0.0,0.0,0.0,0.0,0.0,0.0,0.0,0.0,0.0,0.0,2.4297,2.4302,2.4302,2.4759,2.576,2.6367,2.6674,2.6691,2.6691,2.6691,2.6691,2.6691,2.6691,2.6691,2.6691,2.6691,2.6742,2.7503,2.8281,2.9061,2.9803,3.0531,3.119,3.119,3.119,3.1004,2.9551,2.8993,2.879,2.7233,2.7723,2.8993,2.8993,3.0008,3.119,3.119,3.1428,3.1769,3.2179,3.2518,3.286,3.3271,3.3378,3.3393,3.3393,3.3393,3.3393,3.3393,3.3393,3.3393,3.3393,3.3429,3.3936,3.5532,3.5822,3.6381,3.7973,3.8209,3.8209,3.8209,3.6816,3.5822,3.5804,3.4389,3.3429,3.3393,3.3393,3.4099,3.5695,3.5804,3.6526,3.8136,3.8401,3.8634,3.8892,3.9106,3.9335,3.9589,4.0422,4.1235,4.2023,4.2919,4.3745,1.2024,0.0,0.0,0.0,0.0,0.0,0.0,0.0,0.0,0.0,0.0,0.0,0.0,0.0,0.0,0.0,0.0,0.0,0.0,0.0,0.0,0.0,0.0,0.0,0.0,0.0,0.0,0.0,0.0,2.3931,2.4281,2.4302,2.4759,2.576,2.5961,2.6262,2.6691,2.6691,2.6691,2.6691,2.6691,2.6691,2.6691,2.6691,2.6691,2.6759,2.8113,2.8807,2.9061,2.9803,3.0531,3.119,3.119,3.119,3.1004,2.9551,2.8993,2.879,2.7233,2.7723,2.8993,2.8993,3.0008,3.119,3.119,3.1252,3.1408,3.1786,3.1932,3.2162,3.2797,3.3178,3.3393,3.3393,3.3393,3.3393,3.3393,3.3393,3.3393,3.3393,3.3882,3.4591,3.5623,3.6272,3.7031,3.8064,3.8209,3.8209,3.8209,3.7303,3.6453,3.5858,3.4881,3.4027,3.3447,3.3393,3.4099,3.5695,3.5804,3.6526,3.8136,3.8401,3.8634,3.8892,3.9106,3.9335,3.9589,4.0985,4.1779,4.2023,4.3487,4.4275,0.0,0.0,0.0,0.0,0.0,0.0,0.0,1.6325,0.0,0.0,0.0,0.0,0.0,0.0,0.0,0.0,0.0,0.0,0.0,0.0,0.0,0.0,0.0,0.0,0.0,0.0,0.0,0.0,2.3745,2.3724,2.3994,2.4266,2.4764,2.5521,2.5781,2.6175,2.6691,2.6691,2.6691,2.6691,2.6691,2.6691,2.6691,2.6691,2.6691,2.6776,2.8333,2.8993,2.9077,3.0125,3.0818,3.119,3.119,3.119,3.1004,2.9551,2.8993,2.879,2.7233,2.7723,2.8993,2.8993,3.0008,3.119,3.119,3.119,3.1269,3.1601,3.1823,3.2074,3.265,3.2972,3.3193,3.3364,3.3393,3.3393,3.3393,3.3393,3.3393,3.3393,3.4063,3.4844,3.5659,3.6472,3.7267,3.8082,3.8209,3.8209,3.8209,3.7502,3.6832,3.6345,3.5294,3.4407,3.3954,3.39,3.4428,3.5713,3.6109,3.687,3.8154,3.8305,3.8496,3.8743,3.8946,3.9578,4.0591,4.1535,4.2361,4.3074,4.4031,4.4501,0.0,0.0,0.0,0.0,0.0,0.0,1.5607,1.6264,1.6988,0.0,0.0,0.0,0.0,0.0,0.0,0.0,0.0,0.0,0.0,0.0,0.0,0.0,0.0,0.0,0.0,0.0,0.0,2.3595,2.3595,2.3595,2.3595,2.4173,2.4688,2.5105,2.5691,2.621,2.6624,2.6674,2.6691,2.6691,2.6691,2.6691,2.6691,2.6691,2.6691,2.6776,2.8333,2.8993,2.9111,3.0581,3.119,3.119,3.119,3.119,3.1004,2.9551,2.8993,2.879,2.7317,2.7791,2.901,2.9094,3.0076,3.119,3.119,3.119,3.1252,3.1562,3.1932,3.2299,3.2601,3.2731,3.2892,3.3256,3.3364,3.3393,3.3393,3.3393,3.3429,3.352,3.419,3.4953,3.5677,3.6544,3.7375,3.81,3.8209,3.8209,3.8209,3.7575,3.7104,3.7013,3.5711,3.4787,3.4609,3.4679,3.5025,3.575,3.6544,3.7357,3.8172,3.8209,3.8289,3.851,3.8877,4.0039,4.2004,4.2098,4.2962,4.4501,4.4501,4.4501,0.0,0.0,0.0,0.0,0.0,0.0,1.3721,1.4321,1.5134,0.0,0.0,0.0,0.0,0.0,0.0,0.0,0.0,0.0,0.0,0.0,0.0,0.0,0.0,0.0,0.0,0.0,2.3595,2.3595,2.3595,2.3595,2.3595,2.3724,2.4032,2.4552,2.5089,2.5617,2.6138,2.6505,2.6691,2.6691,2.6691,2.6691,2.6691,2.6691,2.6691,2.6776,2.8333,2.8993,2.9111,3.0581,3.119,3.119,3.119,3.119,3.1004,2.9551,2.8993,2.8857,2.7909,2.8213,2.9094,2.9685,3.048,3.119,3.119,3.119,3.121,3.1271,3.1562,3.1841,3.1914,3.2368,3.2811,3.2892,3.3162,3.3393,3.3393,3.3393,3.3592,3.4244,3.5023,3.5623,3.5768,3.6997,3.8028,3.8191,3.8209,3.8209,3.8209,3.8064,3.772,3.7067,3.6723,3.6001,3.4715,3.5188,3.5623,3.5786,3.6544,3.7357,3.8172,3.8209,3.8289,3.851,3.9556,4.0733,4.2004,4.2712,4.3557,4.4501,4.4501,4.4501,0.0,0.0,0.0,1.2881,0.0,0.0,0.0,1.4338,1.4966,0.0,0.0,0.0,0.0,0.0,0.0,0.0,0.0,0.0,0.0,0.0,0.0,0.0,0.0,0.0,0.0,0.0,2.3595,2.3595,2.3595,2.3595,2.3595,2.3739,2.4021,2.4486,2.4867,2.537,2.605,2.628,2.6505,2.6691,2.6691,2.6691,2.6691,2.6691,2.6691,2.6776,2.8333,2.8993,2.9111,3.0581,3.119,3.119,3.119,3.119,3.1004,2.9551,2.8993,2.8891,2.8077,2.8332,2.9128,2.9871,3.0598,3.119,3.119,3.119,3.119,3.119,3.1329,3.1487,3.1657,3.1968,3.2333,3.2715,3.2939,3.3162,3.3364,3.3393,3.3647,3.4443,3.5243,3.5931,3.6327,3.7395,3.8209,3.8209,3.8209,3.8209,3.8209,3.8209,3.8064,3.7647,3.7249,3.6669,3.5856,3.6164,3.6399,3.6399,3.7158,3.7774,3.8191,3.8209,3.8289,3.851,4.0052,4.1179,4.1856,4.3221,4.412,4.4501,4.4501,4.4501,0.0,0.0,0.0,0.0,0.0,1.3335,0.0,0.0,0.0,1.6003,0.0,0.0,0.0,0.0,0.0,0.0,0.0,0.0,0.0,0.0,0.0,0.0,0.0,0.0,0.0,0.0,2.3475,2.3595,2.349,2.3475,2.3595,2.3818,2.4078,2.442,2.4784,2.5275,2.5944,2.6139,2.6367,2.6691,2.6691,2.6691,2.6691,2.6691,2.6691,2.6776,2.8315,2.8993,2.9111,3.0581,3.119,3.119,3.119,3.119,3.1004,2.9551,2.8993,2.8908,2.8264,2.8467,2.9145,3.0023,3.0717,3.119,3.119,3.119,3.119,3.119,3.119,3.1252,3.1543,3.1657,3.186,3.2452,3.2699,3.2892,3.3208,3.3349,3.3683,3.4627,3.5351,3.6073,3.6868,3.7665,3.8209,3.8209,3.8209,3.8209,3.8209,3.8209,3.8209,3.8209,3.7629,3.7176,3.7013,3.714,3.7158,3.7013,3.7756,3.8209,3.8209,3.8209,3.8289,3.851,4.0351,4.1427,4.1702,4.3578,4.4501,4.4501,4.4501,4.4501,0.0,0.0,0.0,0.0,1.3002,0.0,0.0,0.0,1.3611,1.4339,0.0,0.0,0.0,0.0,0.0,0.0,0.0,0.0,0.0,0.0,0.0,0.0,0.0,0.0,0.0,0.0,0.0,2.355,2.3107,2.3047,2.3565,2.3616,2.3717,2.3888,2.4712,2.5275,2.5481,2.6262,2.6657,2.6691,2.664,2.6606,2.6606,2.6606,2.6606,2.6707,2.8314,2.8993,2.9111,3.0581,3.119,3.119,3.119,3.119,3.1004,2.9551,2.8993,2.8993,2.8908,2.8925,2.923,3.0615,3.1123,3.119,3.119,3.119,3.119,3.119,3.119,3.121,3.1249,3.1468,3.1714,3.1805,3.2316,3.2811,3.286,3.3162,3.3846,3.5369,3.5731,3.6073,3.6868,3.7665,3.8209,3.8209,3.8209,3.8209,3.8209,3.8209,3.8209,3.8209,3.8118,3.7774,3.7067,3.7647,3.7756,3.7049,3.7756,3.8209,3.8209,3.8209,3.8289,3.851,4.0351,4.1427,4.1702,4.3578,4.4501,4.4501,4.4501,4.4501,0.0,0.0,0.0,0.0,0.0,0.0,0.0,0.0,1.3224,0.0,0.0,0.0,0.0,0.0,0.0,0.0,0.0,0.0,0.0,0.0,0.0,0.0,0.0,0.0,0.0,0.0,0.0,0.0,0.0,2.3325,2.3595,2.3674,2.3782,2.3903,2.4369,2.4879,2.5387,2.5799,2.6227,2.664,2.6606,2.6589,2.6589,2.6589,2.6589,2.669,2.8296,2.8993,2.9111,3.0581,3.119,3.119,3.119,3.119,3.1004,2.9551,2.9281,2.9583,2.9145,2.9281,2.9803,3.0852,3.119,3.119,3.119,3.119,3.119,3.119,3.119,3.119,3.119,3.131,3.1449,3.164,3.2109,3.2551,3.2763,3.3474,3.4443,3.5569,3.6182,3.6743,3.7557,3.7991,3.8209,3.8209,3.8209,3.8209,3.8209,3.8209,3.8209,3.8209,3.8209,3.8064,3.7738,3.8009,3.8064,3.772,3.8009,3.8209,3.8209,3.8209,3.8458,3.9013,4.0512,4.1591,4.2165,4.3745,4.4501,4.4501,4.4501,4.4501,1.1205,0.0,0.0,0.0,0.0,0.0,0.0,0.0,0.0,0.0,0.0,0.0,0.0,0.0,0.0,0.0,0.0,0.0,0.0,0.0,0.0,0.0,0.0,0.0,0.0,0.0,0.0,0.0,2.3276,0.0,2.3595,2.3739,2.3861,2.4003,2.4234,2.465,2.5253,2.5521,2.5924,2.6452,2.6555,2.6589,2.6589,2.6589,2.6589,2.669,2.8296,2.8993,2.9111,3.0581,3.119,3.119,3.119,3.119,3.1004,2.9551,2.9465,2.9989,2.9264,2.9617,3.0497,3.1021,3.119,3.119,3.119,3.119,3.119,3.119,3.119,3.119,3.119,3.119,3.1269,3.1506,3.1932,3.2368,3.2601,3.3681,3.4826,3.5641,3.6453,3.7267,3.8064,3.8209,3.8209,3.8209,3.8209,3.8209,3.8209,3.8209,3.8209,3.8209,3.8209,3.8209,3.8209,3.8209,3.8209,3.8209,3.8209,3.8209,3.8209,3.8209,3.8589,3.9369,4.0586,4.1583,4.2396,4.3748,4.4397,4.4397,4.4473,4.4501,0.0,0.0,0.0,0.0,0.0,0.0,0.0,0.0,1.2929,0.0,0.0,0.0,0.0,0.0,0.0,0.0,0.0,0.0,0.0,0.0,0.0,0.0,0.0,0.0,0.0,0.0,0.0,0.0,2.2473,0.0,2.3565,2.3739,2.3861,2.4003,2.4513,2.4819,2.4922,2.5689,2.6087,2.6122,2.6435,2.6589,2.6589,2.6589,2.6589,2.669,2.8296,2.8993,2.9111,3.0581,3.119,3.119,3.119,3.119,3.1004,2.9551,2.9465,2.9989,2.9264,2.9958,3.1157,3.119,3.119,3.119,3.119,3.119,3.119,3.119,3.119,3.119,3.119,3.119,3.121,3.121,3.1768,3.23,3.2317,3.3521,3.4826,3.5641,3.6453,3.7267,3.8064,3.8209,3.8209,3.8209,3.8209,3.8209,3.8209,3.8209,3.8209,3.8209,3.8209,3.8209,3.8209,3.8209,3.8209,3.8209,3.8209,3.8209,3.8209,3.8209,3.8589,3.9369,4.0404,4.1306,4.213,4.3465,4.4106,4.4124,4.4383,4.4501,0.0,0.0,1.3168,1.2842,0.0,0.0,0.0,0.0,0.0,0.0,0.0,0.0,0.0,0.0,0.0,0.0,0.0,0.0,0.0,0.0,0.0,0.0,0.0,0.0,0.0,0.0,0.0,2.2429,2.2978,2.337,0.0,2.3739,2.3861,2.4003,2.4255,2.4549,2.4819,2.5408,2.5815,2.603,2.6417,2.6589,2.6537,2.6537,2.6486,2.6484,2.8153,2.8866,2.8986,3.0562,3.119,3.119,3.119,3.119,3.1004,2.9551,2.9788,3.0784,3.0531,3.0768,3.119,3.119,3.119,3.119,3.119,3.119,3.119,3.119,3.119,3.119,3.119,3.119,3.119,3.119,3.1562,3.1985,3.2231,3.3715,3.515,3.57,3.6888,3.7883,3.8154,3.8209,3.8209,3.8209,3.8209,3.8209,3.8209,3.8209,3.8209,3.8209,3.8209,3.8209,3.8209,3.8209,3.8209,3.8209,3.8209,3.8209,3.8209,3.8209,3.8808,4.0111,4.0642,4.1563,4.29,4.3693,4.4091,4.4124,4.4383,4.4501,1.1829,1.2777,0.0,0.0,1.3529,0.0,0.0,0.0,0.0,0.0,0.0,0.0,0.0,0.0,0.0,0.0,0.0,0.0,0.0,0.0,0.0,0.0,0.0,0.0,0.0,0.0,2.1452,2.2378,2.2978,2.337,0.0,0.0,2.3903,2.4003,2.4151,2.4359,2.4614,2.5214,2.5594,2.5793,2.6365,2.6606,2.6537,2.6537,2.6486,2.65,2.8098,2.8811,2.8913,3.0543,3.119,3.119,3.119,3.119,3.1038,2.9837,2.9989,3.0852,3.1106,3.119,3.119,3.119,3.119,3.119,3.119,3.119,3.119,3.119,3.119,3.119,3.119,3.119,3.119,3.119,3.1466,3.1855,3.2404,3.3934,3.5342,3.5884,3.7186,3.8209,3.8209,3.8209,3.8209,3.8209,3.8209,3.8209,3.8209,3.8209,3.8209,3.8209,3.8209,3.8209,3.8209,3.8209,3.8209,3.8209,3.8209,3.8209,3.8209,3.8209,3.8934,4.0474,4.0685,4.1555,4.316,4.3594,4.3855,4.3952,4.4214,4.4411]},{"header":{"parameterUnit":"m.s-1","parameterCategory":1,"la1":30.6,"la2":29.2853,"lo1":-89.7004,"lo2":-87.6739,"dx":0.0162,"dy":0.0183,"nx":112,"ny":82,"refTime":"2023-02-08T18:00:00:Z","depth":0,"parameterNumber":3,"parameterNumberName":"V-component_of_WINDS"},"data":[0.0,0.0,0.0,0.0,0.0,0.0,0.0,0.0,0.0,0.0,0.0,0.0,0.0,0.0,0.0,0.0,0.0,0.0,0.0,0.0,0.0,0.0,0.0,0.0,0.0,0.0,0.0,0.0,0.0,0.0,0.0,0.0,0.0,0.0,0.0,0.0,0.0,0.0,0.0,0.0,0.0,0.0,0.0,0.0,0.0,0.0,0.0,0.0,0.0,0.0,0.0,0.0,0.0,0.0,0.0,0.0,0.0,0.0,0.0,0.0,0.0,0.0,0.0,0.0,0.0,0.0,0.0,0.0,0.0,0.0,0.0,0.0,0.0,0.0,0.0,0.0,0.0,0.0,0.0,0.0,0.0,0.0,0.0,0.0,0.0,0.0,0.0,0.0,0.0,0.0,0.0,0.4881,0.5143,0.5297,0.5297,0.5297,0.5354,0.5486,0.0,0.0,0.0,0.0,0.0,0.0,0.0,0.0,0.0,0.0,0.0,0.0,0.0,0.0,0.0,0.0,0.0,0.0,0.0,0.0,0.0,0.0,0.0,0.0,0.0,0.0,0.0,0.0,0.0,0.0,0.0,0.0,0.0,0.0,0.0,0.0,0.0,0.0,0.0,0.0,0.0,0.0,0.0,0.0,0.0,0.0,0.0,0.0,0.0,0.0,0.0,0.0,0.0,0.0,0.0,0.0,0.0,0.0,0.0,0.0,0.0,0.0,0.0,0.0,0.0,0.0,0.0,0.0,0.0,0.0,0.0,0.0,0.0,0.0,0.0,0.0,0.0,0.0,0.0,0.0,0.0,0.0,0.0,0.0,0.0,0.0,0.0,0.0,0.0,0.0,0.0,0.0,0.0,0.0,0.0,0.0,0.0,0.0,0.0,0.0,0.0,0.0,0.0,0.0,0.49,0.5185,0.5265,0.5297,0.5297,0.5297,0.5354,0.5486,0.0,0.0,0.0,0.0,0.0,0.0,0.0,0.0,0.0,0.0,0.0,0.0,0.0,0.0,0.0,0.0,0.0,0.0,0.0,0.0,0.0,0.0,0.0,0.0,0.0,0.0,0.0,0.0,0.0,0.0,0.0,0.0,0.0,0.0,0.0,0.0,0.0,0.0,0.0,0.0,0.0,0.0,0.0,0.0,0.0,0.0,0.0,0.0,0.0,0.0,0.0,0.0,0.0,0.0,0.0,0.0,0.0,0.0,0.0,0.0,0.0,0.0,0.0,0.0,0.0,0.0,0.0,0.0,0.0,0.0,0.0,0.0,0.0,0.0,0.0,0.0,0.0,0.0,0.0,0.0,0.0,0.0,0.0,0.0,0.0,0.0,0.0,0.0,0.0,0.0,0.0,0.0,0.0,0.0,0.0,0.0,0.0,0.0,0.0,0.0,0.0,0.0,0.0,0.4702,0.4921,0.5261,0.5297,0.5297,0.5297,0.5297,0.5354,0.5486,0.5994,0.0,0.0,0.0,0.0,0.0,0.0,0.0,0.0,0.0,0.0,0.0,0.0,0.0,0.0,0.0,0.0,0.0,0.0,0.0,0.0,0.0,0.0,0.0,0.0,0.0,0.0,0.0,0.0,0.0,0.0,0.0,0.0,0.0,0.0,0.0,0.0,0.0,0.0,0.0,0.0,0.0,0.0,0.0,0.0,0.0,0.0,0.0,0.0,0.0,0.0,0.0,0.0,0.0,0.0,0.0,0.0,0.0,0.0,0.0,0.0,0.0,0.0,0.0,0.0,0.0,0.0,0.0,0.0,0.0,0.0,0.0,0.0,0.0,0.0,0.0,0.0,0.0,0.0,0.0,0.0,0.0,0.0,0.0,0.0,0.0,0.0,0.0,0.0,0.0,0.0,0.0,0.0,0.0,0.0,0.0,0.0,0.0,0.0,0.0,0.0,0.0,0.0,0.4881,0.5014,0.5269,0.5297,0.5297,0.5297,0.5297,0.5407,0.5653,0.5989,0.0,0.0,0.0,0.0,0.0,0.0,0.0,0.0,0.0,0.0,0.0,0.0,0.0,0.0,0.0,0.0,0.0,0.0,0.0,0.0,0.0,0.0,0.0,0.0,0.0,0.0,0.0,0.0,0.0,0.0,0.0,0.0,0.0,0.0,0.0,0.0,0.0,0.0,0.0,0.0,0.0,0.0,0.0,0.0,0.0,0.0,0.0,0.0,0.0,0.0,0.0,0.0,0.0,0.0,0.0,0.0,0.0,0.0,0.0,0.0,0.0,0.0,0.0,0.0,0.0,0.0,0.0,0.0,0.0,0.0,0.0,0.0,0.0,0.0,0.0,0.0,0.0,0.0,0.0,0.0,0.0,0.0,0.0,0.0,0.0,0.0,0.0,0.0,0.0,0.0,0.0,0.0,0.0,0.0,0.0,0.0,0.0,0.0,0.0,0.0,0.0,0.0,0.5074,0.5269,0.5297,0.5297,0.5297,0.5297,0.5297,0.554,0.6117,0.6183,0.0,0.0,0.0,0.0,0.0,0.0,0.0,0.0,0.0,0.0,0.0,0.0,0.0,0.0,0.0,0.0,0.0,0.0,0.0,0.0,0.0,0.0,0.0,0.0,0.0,0.0,0.0,0.0,0.0,0.0,0.0,0.0,0.0,0.0,0.0,0.0,0.0,0.0,0.0,0.0,0.0,0.0,0.0,0.0,0.0,0.0,0.0,0.0,0.0,0.0,0.0,0.0,0.0,0.0,0.0,0.0,0.0,0.0,0.0,0.0,0.0,0.0,0.0,0.0,0.0,0.0,0.0,0.0,0.0,0.0,0.0,0.0,0.0,0.0,0.0,0.0,0.0,0.0,0.0,0.0,0.0,0.0,0.0,0.0,0.0,0.0,0.0,0.0,0.0,0.0,0.0,0.0,0.0,0.0,0.0,0.0,0.0,0.0,0.0,0.0,0.0,0.0,0.5027,0.524,0.0,0.5486,0.5612,0.5959,0.5993,0.614,0.6498,0.0,0.0,0.0,0.0,0.0,0.0,0.0,0.0,0.0,0.0,0.0,0.0,0.0,0.0,0.0,0.0,0.0,0.0,0.0,0.0,0.0,0.0,0.0,0.0,0.0,0.0,0.0,0.0,0.0,0.0,0.0,0.0,0.0,0.0,0.0,0.0,0.0,0.0,0.0,0.0,0.0,0.0,0.0,0.0,0.0,0.0,0.0,0.0,0.0,0.0,0.0,0.0,0.0,0.0,0.0,0.0,0.0,0.0,0.0,0.0,0.0,0.0,0.0,0.0,0.0,0.0,0.0,0.0,0.0,0.0,0.0,0.0,0.0,0.0,0.0,0.0,0.0,0.0,0.0,0.0,0.0,0.0,0.0,0.0,0.0,0.0,0.0,0.0,0.0,0.0,0.0,0.0,0.0,0.0,0.0,0.0,0.0,0.0,0.0,0.0,0.0,0.0,0.4869,0.51,0.5364,0.0,0.5697,0.5834,0.6194,0.6353,0.6507,0.6754,0.0,0.0,0.0,0.0,0.0,0.0,0.0,0.0,0.0,0.0,0.0,0.0,0.0,0.0,0.0,0.0,0.0,0.0,0.0,0.0,0.0,0.0,0.0,0.0,0.0,0.0,0.0,0.0,0.0,0.0,0.0,0.0,0.0,0.0,0.0,0.0,0.0,0.0,0.0,0.0,0.0,0.0,0.0,0.0,0.0,0.0,0.0,0.0,0.0,0.0,0.0,0.0,0.0,0.0,0.0,0.0,0.0,0.0,0.0,0.0,0.0,0.0,0.0,0.0,0.0,0.0,0.0,0.0,0.0,0.0,0.0,0.0,0.0,0.0,0.0,0.0,0.0,0.0,0.0,0.0,0.0,0.0,0.0,0.0,0.0,0.0,0.0,0.0,0.0,0.0,0.0,0.0,0.0,0.0,0.0,0.0,0.0,0.0,0.0,0.0,0.0,0.0,0.5086,0.5397,0.5685,0.5872,0.5892,0.5892,0.5922,0.6216,0.657,0.0,0.0,0.0,0.0,0.0,0.0,0.0,0.0,0.0,0.0,0.0,0.0,0.0,0.0,0.0,0.0,0.0,0.0,0.0,0.0,0.0,0.0,0.0,0.0,0.0,0.0,0.0,0.0,0.0,0.0,0.0,0.0,0.0,0.0,0.0,0.0,0.0,0.0,0.0,0.0,0.0,0.0,0.0,0.0,0.0,0.0,0.0,0.0,0.0,0.0,0.0,0.0,0.0,0.0,0.0,0.0,0.0,0.0,0.0,0.0,0.0,0.0,0.0,0.0,0.0,0.0,0.0,0.0,0.0,0.0,0.0,0.0,0.0,0.0,0.0,0.0,0.0,0.0,0.0,0.0,0.0,0.0,0.0,0.0,0.0,0.0,0.0,0.0,0.0,0.0,0.0,0.0,0.0,0.0,0.0,0.0,0.0,0.0,0.0,0.0,0.0,0.0,0.0,0.0,0.5584,0.5902,0.6082,0.6102,0.6371,0.6981,0.7113,0.749,0.8264,0.0,0.0,0.0,0.0,0.0,0.0,0.0,0.0,0.0,0.0,0.0,0.0,0.0,0.0,0.0,0.0,0.0,0.0,0.0,0.0,0.0,0.0,0.0,0.0,0.0,0.0,0.0,0.0,0.0,0.0,0.0,0.0,0.0,0.0,0.0,0.0,0.0,0.0,0.0,0.0,0.0,0.0,0.0,0.0,0.0,0.0,0.0,0.0,0.0,0.0,0.0,0.0,0.0,0.0,0.0,0.0,0.0,0.0,0.0,0.0,0.0,0.0,0.0,0.0,0.0,0.0,0.0,0.0,0.0,0.0,0.0,0.0,0.0,0.0,0.0,0.0,0.0,0.0,0.0,0.0,0.0,0.0,0.0,0.0,0.0,0.0,0.0,0.0,0.0,0.0,0.0,0.0,0.0,0.0,0.0,0.0,0.0,0.0,0.0,0.0,0.0,0.0,0.5405,0.577,0.609,0.6269,0.6286,0.6492,0.7027,0.733,0.773,0.8314,0.0,0.0,0.0,0.0,0.0,0.0,0.0,0.0,0.0,0.0,0.0,0.0,0.0,0.0,0.0,0.0,0.0,0.0,0.0,0.0,0.0,0.0,0.0,0.0,0.0,0.0,0.0,0.0,0.0,0.0,0.0,0.0,0.0,0.0,0.0,0.0,0.0,0.0,0.0,0.0,0.0,0.0,0.0,0.0,0.0,0.0,0.0,0.0,0.0,0.0,0.0,0.0,0.0,0.0,0.0,0.0,0.0,0.0,0.0,0.0,0.0,0.0,0.0,0.0,0.0,0.0,0.0,0.0,0.0,0.0,0.0,0.0,0.0,0.0,0.0,0.0,0.0,0.0,0.0,0.0,0.0,0.0,0.0,0.0,0.0,0.0,0.0,0.0,0.0,0.0,0.0,0.0,0.0,0.0,0.0,0.0,0.0,0.0,0.0,0.0,0.0,0.0,0.5616,0.598,0.6265,0.64,0.6387,0.6416,0.6482,0.7101,0.7564,0.7695,0.0,0.0,0.0,0.0,0.0,0.0,0.0,0.0,0.0,0.0,0.0,0.0,0.0,0.0,0.0,0.0,0.0,0.0,0.0,0.0,0.0,0.0,0.0,0.0,0.0,0.0,0.0,0.0,0.0,0.0,0.0,0.0,0.0,0.0,0.0,0.0,0.0,0.0,0.0,0.0,0.0,0.0,0.0,0.0,0.0,0.0,0.0,0.0,0.0,0.0,0.0,0.0,0.0,0.0,0.0,0.0,0.0,0.0,0.0,0.0,0.677,0.0,0.0,0.0,0.0,0.0,0.0,0.0,0.0,0.0,0.0,0.0,0.0,0.0,0.0,0.0,0.0,0.0,0.0,0.0,0.0,0.0,0.0,0.0,0.0,0.0,0.0,0.0,0.0,0.0,0.0,0.0,0.0,0.0,0.0,0.0,0.0,0.0,0.0,0.0,0.0,0.0,0.5807,0.614,0.6375,0.6383,0.6387,0.6646,0.7232,0.7423,0.7977,0.9094,0.0,0.0,0.0,0.0,0.0,0.0,0.0,0.0,0.0,0.0,0.0,0.0,0.0,0.0,0.0,0.0,0.0,0.0,0.0,0.0,0.0,0.0,0.0,0.0,0.0,0.0,0.0,0.0,0.0,0.0,0.0,0.0,0.0,0.0,0.0,0.0,0.0,0.0,0.0,0.0,0.0,0.0,0.0,0.0,0.0,0.0,0.0,0.0,0.0,0.0,0.0,0.0,0.0,0.0,0.0,0.0,0.0,0.0,0.0,0.0,0.0,0.7354,0.0,0.0,0.0,0.0,0.0,0.0,0.0,0.0,0.0,0.0,0.0,0.0,0.0,0.0,0.0,0.0,0.0,0.0,0.0,0.0,0.0,0.0,0.0,0.0,0.0,0.0,0.0,0.0,0.0,0.0,0.0,0.0,0.0,0.0,0.0,0.0,0.0,0.0,0.0,0.0,0.5876,0.6197,0.6387,0.6387,0.6387,0.6613,0.7171,0.7396,0.7894,0.8771,0.8982,0.0,0.0,0.0,0.0,0.0,0.0,0.0,0.0,0.0,0.0,0.0,0.0,0.0,0.0,0.0,0.0,0.0,0.0,0.0,0.0,0.0,0.0,0.0,0.0,0.0,0.0,0.0,0.0,0.0,0.0,0.0,0.0,0.0,0.0,0.0,0.0,0.0,0.0,0.0,0.0,0.0,0.0,0.0,0.0,0.0,0.0,0.0,0.0,0.0,0.0,0.0,0.0,0.0,0.0,0.0,0.8973,0.8973,0.914,0.9411,0.888,0.8569,0.8462,0.0,0.0,0.0,0.0,0.0,0.0,0.0,0.0,0.0,0.0,0.0,0.0,0.0,0.0,0.0,0.0,0.0,0.0,0.0,0.0,0.0,0.0,0.0,0.0,0.0,0.7069,0.702,0.0,0.0,0.0,0.0,0.0,0.0,0.0,0.0,0.0,0.0,0.0,0.0,0.5959,0.6217,0.6387,0.6387,0.6387,0.6552,0.6881,0.7265,0.7689,0.8112,0.8596,0.9093,0.0,0.0,0.0,0.0,0.0,0.0,0.0,0.0,0.0,0.0,0.0,0.0,0.0,0.0,0.0,0.0,0.0,0.0,0.0,0.0,0.0,0.0,0.0,0.0,0.0,0.0,0.0,0.0,0.0,0.0,0.0,0.0,0.8005,0.8032,0.0,0.0,0.0,0.0,0.0,0.0,0.0,0.0,0.0,0.0,0.0,0.0,0.0,0.0,0.8391,0.8559,0.8819,0.9147,0.929,0.946,0.9672,0.9672,0.9779,1.001,1.0271,0.0,0.9414,0.9457,0.0,0.0,0.0,0.0,0.0,0.0,0.0,0.0,0.0,0.0,0.0,0.0,0.0,0.0,0.0,0.0,0.0,0.0,0.0,0.0,0.0,0.0,0.7623,0.7655,0.7682,0.7629,0.0,0.6888,0.6516,0.6277,0.0,0.0,0.0,0.0,0.0,0.0,0.0,0.0,0.6154,0.629,0.6387,0.6387,0.6387,0.6552,0.6881,0.7265,0.7809,0.8576,0.9009,0.9348,0.9585,0.951,0.0,0.0,0.0,0.0,0.0,0.0,0.0,0.0,0.0,0.0,0.0,0.0,0.0,0.0,0.0,0.0,0.0,0.0,0.0,0.0,0.0,0.0,0.0,0.0,0.0,0.0,0.0,0.0,0.0,0.8003,0.7939,0.7981,0.8068,0.8047,0.0,0.0,0.0,0.0,0.0,0.0,0.0,0.0,0.0,0.8282,0.8176,0.836,0.8873,0.9128,0.9485,0.9925,1.0171,1.0416,1.0643,1.0643,1.0683,1.0779,1.0959,1.0848,1.0555,1.0317,1.0035,0.9709,0.0,0.0,0.0,0.0,0.0,0.941,0.9476,0.0,0.0,0.0,0.0,0.0,0.0,0.0,0.0,0.0,0.0,0.0,0.0,0.0,0.0,0.7966,0.8025,0.8032,0.8017,0.7849,0.7509,0.0,0.6726,0.6668,0.6346,0.0,0.0,0.0,0.0,0.0,0.6199,0.6306,0.6387,0.6387,0.6387,0.6552,0.6881,0.7265,0.7717,0.8269,0.8662,0.9035,0.943,0.903,0.8786,0.0,0.0,0.0,0.0,0.0,0.0,0.0,0.0,0.0,0.0,0.0,0.0,0.0,0.0,0.0,0.0,0.0,0.0,0.0,0.0,0.0,0.0,0.0,0.0,0.0,0.0,0.0,0.0,0.8052,0.8222,0.8282,0.8719,0.8838,0.0,0.0,0.0,0.0,0.0,0.0,0.8816,0.836,0.8231,0.8553,0.8637,0.8958,0.9581,0.9824,1.0269,1.092,1.1057,1.1285,1.1584,1.1584,1.1584,1.1584,1.1584,1.1584,1.1559,1.1165,1.0926,1.0824,1.0627,1.0491,0.0,1.0493,1.0527,1.053,1.0532,1.0707,1.0892,1.0803,0.0,1.0424,1.0629,0.0,0.0,0.0,0.0,0.7722,0.7982,0.0,0.7984,0.8404,0.8368,0.8322,0.8474,0.8463,0.8202,0.0,0.7273,0.7169,0.6934,0.0,0.0,0.0,0.0,0.6381,0.6273,0.6335,0.6387,0.6387,0.6387,0.6552,0.6881,0.7363,0.7782,0.7987,0.8441,0.8829,0.9081,0.8555,0.8584,0.0,0.0,0.0,0.0,0.0,0.0,0.0,0.0,0.0,0.0,0.0,0.0,0.0,0.0,0.0,0.0,0.0,0.0,0.0,0.0,0.0,0.0,0.0,0.0,0.0,0.0,0.0,0.0,0.0,0.0,0.9611,1.0062,0.0,0.0,0.0,0.0,1.0604,0.9401,0.9166,1.0398,0.9616,0.9241,0.9533,0.9787,1.023,1.0897,1.0855,1.1336,1.2296,1.1921,1.1968,1.2329,1.2329,1.2329,1.2329,1.2329,1.2329,1.2303,1.1909,1.1567,1.131,1.1593,1.1507,1.1284,1.1593,1.1703,1.178,1.2148,1.2293,1.225,1.1847,1.1212,1.074,1.1494,1.0569,0.0,0.0,0.99,0.9284,0.9756,0.9521,0.9221,0.9244,0.8844,0.8501,0.8511,0.8365,0.8263,0.0,0.8415,0.8238,0.7742,0.0,0.0,0.6809,0.6889,0.6908,0.6449,0.6412,0.6387,0.6387,0.6387,0.6552,0.6881,0.7689,0.8107,0.8019,0.8791,0.9055,0.8549,0.8501,0.8419,0.828,0.8567,0.0,0.0,0.0,0.0,0.0,0.0,0.0,0.0,0.0,0.0,0.0,0.0,0.0,0.0,0.0,0.0,0.0,0.0,0.0,0.0,0.0,0.0,0.0,0.0,0.0,0.0,0.0,0.0,0.985,1.0533,0.0,0.0,1.0809,1.0923,1.0563,1.0388,1.0335,1.0465,1.0138,1.0175,1.0609,1.1025,1.1462,1.1955,1.1928,1.2252,1.2842,1.2717,1.2553,1.2417,1.2712,1.2684,1.2389,1.2389,1.2389,1.2398,1.2526,1.2346,1.2031,1.2141,1.2107,1.2031,1.2141,1.2201,1.2218,1.2346,1.256,1.2783,1.2886,1.227,1.156,1.1823,1.1012,1.0026,1.0356,1.0098,0.9773,0.9964,0.9862,0.9741,0.9741,0.9364,0.9022,0.9022,0.8698,0.8409,0.8501,0.8388,0.8248,0.8068,0.8054,0.7884,0.7361,0.7113,0.69,0.6741,0.6519,0.6482,0.6683,0.6716,0.6876,0.7265,0.8037,0.8361,0.8019,0.8823,0.9055,0.8517,0.8517,0.8474,0.8388,0.8541,0.8344,0.0,0.0,0.0,0.0,0.0,0.0,0.0,0.0,0.0,0.0,0.0,0.0,0.0,0.0,0.0,0.0,0.0,0.0,0.0,0.0,0.0,0.0,0.0,0.0,0.0,0.0,1.0604,1.0341,1.1167,1.1612,1.1221,1.1738,1.1797,1.1044,1.125,1.1268,1.0941,1.1021,1.127,1.1636,1.2087,1.2547,1.2934,1.2942,1.3223,1.3736,1.3433,1.3209,1.3002,1.3155,1.307,1.2766,1.2766,1.2766,1.2792,1.3048,1.3006,1.2766,1.2766,1.2766,1.2766,1.2766,1.2766,1.2766,1.2766,1.2946,1.3194,1.3434,1.2964,1.2328,1.2328,1.1677,1.0902,1.0902,1.073,1.0528,1.0528,1.0408,1.0281,1.0281,0.9901,0.9524,0.9524,0.9145,0.877,0.877,0.8663,0.852,0.8337,0.8366,0.826,0.7694,0.7397,0.7149,0.6854,0.6674,0.6651,0.6881,0.6815,0.7036,0.7842,0.834,0.859,0.8463,0.9032,0.9122,0.8511,0.8436,0.8431,0.8511,0.8517,0.8318,0.7944,0.0,0.0,0.0,0.0,0.0,0.0,0.0,0.0,0.0,0.0,0.0,0.0,0.0,0.0,0.0,0.0,0.0,0.0,0.0,0.0,0.0,0.0,0.0,1.0544,1.0798,1.1148,1.1148,1.2082,1.2561,1.2169,1.2147,1.2144,1.2138,1.2024,1.1947,1.1947,1.2311,1.2538,1.2538,1.3004,1.344,1.3827,1.3836,1.4229,1.501,1.4157,1.3929,1.4219,1.3752,1.3541,1.3511,1.3511,1.3511,1.3511,1.3511,1.3511,1.3511,1.3511,1.3511,1.3511,1.3511,1.3511,1.3511,1.3511,1.3511,1.3511,1.3511,1.3277,1.2989,1.2981,1.2582,1.2096,1.2096,1.184,1.1591,1.1591,1.1209,1.0839,1.0839,1.0408,0.9983,0.9983,0.9614,0.9274,0.9274,0.9306,0.9145,0.8582,0.8926,0.8899,0.7793,0.785,0.0,0.6773,0.6791,0.6913,0.6937,0.6642,0.7055,0.8565,0.8598,0.8757,0.9256,0.9482,0.927,0.8538,0.8317,0.8306,0.8511,0.8506,0.8388,0.8207,0.0,0.0,0.0,0.0,0.0,0.0,0.0,0.0,0.0,0.0,0.0,0.0,0.0,0.0,0.0,0.0,0.0,0.0,0.0,0.0,0.0,0.0,1.2312,1.1575,1.1921,1.2249,1.2249,1.2614,1.2925,1.311,1.3111,1.3064,1.299,1.2949,1.2932,1.2932,1.3032,1.325,1.3638,1.4115,1.4517,1.4865,1.4836,1.506,1.5494,1.5264,1.4993,1.4686,1.4567,1.433,1.4001,1.3662,1.3511,1.3511,1.3511,1.3511,1.3511,1.3511,1.3511,1.3511,1.3511,1.3511,1.3511,1.3511,1.3511,1.3511,1.3511,1.3277,1.295,1.2705,1.2398,1.2058,1.1809,1.1654,1.1591,1.1591,1.1498,1.1373,1.1373,1.0661,0.9983,0.9983,0.9332,0.8705,0.8705,0.9022,0.9145,0.8582,0.8608,0.8619,0.8297,0.0,0.0,0.7643,0.7205,0.7145,0.7844,0.7577,0.7734,0.87,0.9112,0.9122,0.0,0.9145,0.9108,0.8511,0.8452,0.8447,0.8517,0.8371,0.8247,0.0,0.0,0.0,0.0,0.0,0.0,0.0,0.0,0.0,0.0,0.0,0.0,0.0,0.0,0.0,0.0,0.0,0.0,0.0,0.0,0.0,0.0,1.3163,1.2933,1.2835,1.2897,1.2936,1.2936,1.3216,1.3496,1.3724,1.3743,1.3631,1.3322,1.3689,1.3847,1.3617,1.3979,1.4325,1.464,1.4978,1.5286,1.554,1.5581,1.571,1.6,1.5798,1.5556,1.5225,1.4813,1.4449,0.0,1.3911,1.3782,1.3821,1.4022,1.4082,0.0,0.0,0.0,0.0,0.0,1.3511,1.3511,1.3511,1.3511,1.3511,1.3511,1.3277,1.2928,1.2613,1.2305,1.2034,1.1685,1.1591,1.1591,1.1591,1.1591,1.1591,1.1591,1.1108,1.0661,1.0661,0.9869,0.9145,0.9145,0.0,0.0,0.8861,0.8829,0.8731,0.8409,0.8473,0.8463,0.0,0.805,0.8115,0.8448,0.7996,0.8064,0.8951,0.8889,0.0,0.0,0.0,0.8888,0.8392,0.0,0.0,0.0,0.0,0.8333,0.0,0.0,0.0,0.0,0.7102,0.6788,0.0,0.0,0.0,0.0,0.0,0.0,0.0,0.0,0.0,0.0,0.0,0.0,0.0,0.0,0.0,0.0,1.408,1.3779,1.4152,1.3769,1.3452,1.3394,1.3801,1.4124,1.4172,1.4182,1.4003,1.3579,1.4352,1.4657,1.4185,0.0,0.0,0.0,0.0,1.573,1.5885,1.6009,1.6181,1.6374,1.5972,1.5788,1.5759,1.4813,1.4369,1.4369,1.4309,1.4279,1.4309,1.4715,1.4893,1.4804,1.3932,1.3541,1.3511,1.3511,1.3511,0.0,0.0,0.0,0.0,1.3511,1.3307,1.2981,1.2666,1.2367,1.2096,1.1747,1.1622,1.1591,1.1591,1.1591,1.1591,1.1591,1.156,1.1498,1.1498,1.0724,0.9983,0.9983,0.9268,0.8829,0.9306,0.9274,0.9038,0.8496,0.89,0.0,0.864,0.9121,0.9314,0.8864,0.0,0.0,0.9163,0.8384,0.8205,0.916,0.8931,0.8618,0.8251,0.8398,0.8414,0.8225,0.8404,0.8528,0.8554,0.8554,0.8201,0.755,0.7097,0.6757,0.0,0.0,0.0,0.0,0.0,0.0,0.0,0.0,0.0,0.0,0.0,0.0,0.0,0.0,0.0,1.5742,1.5213,1.4733,1.4815,1.4626,1.4377,1.4,1.4029,1.4241,1.4629,1.4658,1.4777,1.4993,1.5186,1.5235,1.5139,1.5303,0.0,1.541,1.5449,1.5546,1.574,1.5875,1.6019,1.6153,0.0,0.0,1.6259,1.5672,1.541,1.5381,1.4951,1.4745,1.4775,1.4863,1.4893,1.4834,1.427,1.3821,1.3511,1.3511,1.3511,1.3511,1.3511,1.3511,1.3511,1.3511,1.345,1.3329,1.3011,1.2674,0.0,1.2089,1.1809,1.1591,1.1591,1.1591,1.1591,1.1591,1.1279,1.0958,1.0958,1.044,0.9983,0.9983,0.9831,0.9735,0.9862,0.921,0.8877,0.9541,0.9456,0.941,0.9661,0.9577,0.9471,0.942,0.9013,0.8796,0.8895,0.8694,0.8623,0.8657,0.8597,0.8538,0.8447,0.849,0.849,0.8447,0.849,0.8608,0.883,0.883,0.855,0.7987,0.7565,0.7039,0.0,0.0,0.0,0.0,0.0,0.0,0.0,0.0,0.0,0.0,0.0,1.6041,0.0,0.0,1.5928,1.6327,1.5812,1.5326,1.5224,1.5148,1.4941,1.4512,1.4621,1.4835,1.5078,1.5098,1.5186,1.5391,1.541,1.541,1.541,1.541,1.541,1.541,1.541,1.5507,1.5701,1.5769,1.5904,1.6114,1.621,1.6306,1.6374,1.5914,1.5701,1.5682,1.543,1.5313,1.5313,1.5546,1.5517,1.5254,1.4754,1.427,1.3821,1.3601,1.3511,1.3511,1.3511,1.3511,1.3511,1.3511,1.3511,1.345,1.3103,1.2767,1.2451,1.2182,1.1879,1.1591,1.1591,1.1591,1.1591,1.1591,1.1404,1.1216,1.1216,1.0793,1.0408,1.0408,1.018,1.0085,1.0345,0.9773,0.9422,0.9926,1.0028,1.0129,1.0376,1.0256,1.0046,0.9812,0.9225,0.8785,0.8676,0.8788,0.882,0.8717,0.8797,0.8861,0.8861,0.8861,0.8861,0.8861,0.8861,0.8915,0.9034,0.9034,0.8712,0.811,0.7902,0.7398,0.0,0.0,0.0,0.0,0.0,0.0,0.0,0.0,1.6493,1.6293,1.6577,1.6979,1.7441,1.7036,1.6711,1.689,1.6402,1.5898,1.5612,1.5468,1.5283,1.4951,1.5205,1.541,1.541,1.541,1.541,1.541,1.541,1.541,1.541,1.541,1.541,1.541,1.541,1.5478,1.5643,1.5701,1.5817,1.6028,1.6124,1.621,1.6316,1.6,1.5856,1.5856,1.5856,1.5856,1.5885,1.623,1.6173,1.5788,1.5254,1.4754,1.427,1.3722,1.3511,1.3511,1.3511,1.3511,1.3511,1.3511,1.3511,1.345,1.3186,1.2828,1.2451,1.2243,1.1903,1.1591,1.1591,1.1591,1.1591,1.1591,1.1591,1.1591,1.1591,1.1247,1.0965,1.0965,1.0604,1.0453,1.0939,1.0685,1.0372,1.0313,1.0604,1.0839,1.0933,1.087,1.06,1.013,0.9359,0.8804,0.8641,0.8824,0.8965,0.8965,0.9104,0.9206,0.9206,0.9206,0.9206,0.9206,0.9206,0.9227,0.9276,0.9276,0.8908,0.8203,0.8203,0.7767,1.8463,1.7939,0.0,1.9554,1.9105,1.8561,0.0,0.0,1.8378,1.7997,1.7978,1.8131,1.8548,1.8474,1.8281,1.8132,1.7484,1.683,1.6273,1.5748,1.5391,1.5352,1.5381,1.541,1.541,1.541,1.541,1.541,1.541,1.541,1.541,1.541,1.541,1.541,1.541,1.541,1.5439,1.573,1.5827,1.5759,1.6173,1.6278,1.6142,1.6249,1.6316,1.6316,1.6316,1.6316,1.6316,1.6374,1.6384,1.6259,1.5788,1.5284,1.4715,1.3842,1.3511,1.3511,1.3511,1.3511,1.3511,1.3511,1.3511,1.3472,1.345,1.2995,1.2482,1.2451,1.205,1.1591,1.1591,1.1591,1.1591,1.1591,1.1591,1.1591,1.1591,1.156,1.1498,1.1498,1.1466,1.1522,1.1804,1.1815,1.1689,1.1471,1.1059,1.0965,1.1435,1.109,1.068,1.0384,0.9841,0.9394,0.9144,0.9152,0.9168,0.9168,0.919,0.9206,0.9206,0.9206,0.9206,0.9206,0.9206,0.9314,0.957,0.957,0.9238,0.8633,0.8633,0.8028,2.0722,0.0,0.0,0.0,2.0119,1.9767,1.9776,1.955,1.93,1.9149,1.9127,1.9158,1.9257,1.9153,1.8775,0.0,1.7462,1.6866,1.5911,1.5546,1.541,1.541,1.541,1.541,1.541,1.541,1.541,1.541,1.541,1.541,1.541,1.541,1.541,1.541,1.541,1.541,1.541,1.5536,1.5633,1.5701,1.5972,1.6105,1.6114,1.6306,1.6413,1.6413,1.6413,1.6413,1.6413,1.6413,1.6413,1.6355,1.5885,1.5371,1.4834,1.4151,1.3722,1.3511,1.3511,1.3511,1.3511,1.3511,1.3511,1.3511,1.3511,1.3025,1.2482,1.2482,1.2195,1.1838,1.1838,1.1977,1.2123,1.2123,1.2123,1.2123,1.2123,1.2123,1.2123,1.2123,1.2123,1.216,1.2259,1.2288,1.2237,1.2138,1.192,1.1854,1.2091,1.1393,1.0575,0.9799,0.9502,0.9335,0.9195,0.9335,0.9421,0.9421,0.955,0.962,0.962,0.962,0.962,0.962,0.962,0.9669,0.9776,0.9776,0.9526,0.9051,0.8818,0.8312,2.1919,0.0,0.0,2.1186,2.1222,2.106,2.0621,2.0384,2.0225,2.0107,1.9925,1.9759,1.9604,1.9486,0.0,1.7831,1.7407,1.6838,1.5806,1.5497,1.541,1.541,1.541,1.541,1.541,1.541,1.541,1.541,1.541,1.541,1.541,1.541,1.541,1.541,1.541,1.541,1.541,1.5449,1.5546,1.5614,1.5846,1.599,1.6066,1.6288,1.6413,1.6413,1.6413,1.6413,1.6413,1.6413,1.6413,1.6384,1.6029,1.5585,1.5069,1.4567,1.3992,1.3511,1.3511,1.3511,1.3511,1.3511,1.3579,1.3673,1.3673,1.3248,1.2798,1.2798,1.2468,1.2135,1.2135,1.231,1.2485,1.2485,1.2485,1.2485,1.2485,1.2485,1.2485,1.2485,1.2485,1.2514,1.2602,1.2658,1.2653,1.2775,1.2789,1.2723,1.2514,1.16,1.054,0.9414,0.9367,0.94,0.94,0.9567,0.9674,0.9674,0.983,0.9884,0.9884,0.9884,0.9884,0.9884,0.9884,0.9884,0.9884,0.9884,0.9695,0.9284,0.8894,0.8475,0.0,0.0,2.1168,2.2354,2.2643,2.2625,2.2613,2.2113,2.1465,2.0879,2.0245,1.9759,1.9604,1.9486,1.9146,1.8387,1.7683,1.6978,1.6358,1.5777,1.541,1.541,1.541,1.541,0.0,1.541,1.541,1.541,1.541,1.541,1.541,1.541,1.541,1.541,1.541,1.541,1.541,1.5575,1.5604,1.541,1.5874,1.6038,1.5914,1.6259,1.6413,1.6413,1.6413,1.6413,1.6413,1.6413,1.6413,1.6413,1.6374,1.6087,1.5614,1.5069,1.4291,1.3511,1.3511,1.3511,1.3511,1.3511,1.3768,1.4076,1.4076,1.3842,1.3586,1.3586,1.3027,1.247,1.247,1.2477,1.2485,1.2485,1.2485,1.2485,1.2485,1.2485,1.2485,1.2485,1.2485,1.2587,1.2943,1.2994,1.3104,1.3418,1.347,1.3236,1.2565,1.1733,1.0779,0.9712,0.9766,0.9895,0.9895,0.9868,0.9911,0.9911,0.9879,0.9884,0.9884,0.9884,0.9884,0.9884,0.9884,0.9884,0.9884,0.9884,0.9695,0.9284,0.8894,0.8475,0.0,0.0,2.2975,2.3226,2.3295,2.3276,2.3238,2.2785,2.2161,2.1465,2.0589,1.9766,1.9284,1.9019,1.8675,1.7993,1.7513,1.6978,1.6386,1.5777,1.541,1.541,1.541,0.0,0.0,0.0,0.0,1.541,1.541,1.541,1.541,1.541,1.541,1.541,1.541,1.541,1.541,1.5478,1.5478,1.541,1.5778,1.599,1.6038,1.6288,1.6413,1.6413,1.6413,1.6413,1.6413,1.6413,1.6413,1.6413,1.6413,1.6116,1.5672,1.5498,1.4982,1.4276,1.3687,1.3682,1.3905,1.3905,1.4161,1.4487,1.4487,1.4065,1.3618,1.3618,1.3218,1.2848,1.2848,1.3001,1.317,1.317,1.317,1.317,1.317,1.317,1.317,1.317,1.317,1.3206,1.3309,1.3331,1.3367,1.3477,1.3492,1.3121,1.2103,1.1728,1.1089,0.9915,0.9873,0.9884,0.9884,0.9884,0.9884,0.9884,0.9884,0.9884,0.9884,0.9884,0.9884,0.9884,0.9884,0.9884,0.9884,0.9884,0.9846,0.9695,0.9008,0.878,0.0,2.3897,2.4118,2.3916,2.3846,2.3782,2.3581,2.3091,2.2558,2.2035,2.0894,1.9843,1.9363,1.8908,1.8423,1.7892,1.7484,1.7033,1.6482,1.5848,1.5435,1.5391,1.541,0.0,0.0,0.0,0.0,1.541,1.541,1.541,1.541,1.541,1.541,1.541,1.541,1.541,1.541,1.541,1.5449,1.5507,1.573,1.5933,1.6114,1.622,1.6345,1.6413,1.6413,1.6413,1.6413,1.6413,1.6413,1.6413,1.6413,1.6202,1.5963,1.5909,1.568,1.5192,1.4285,1.4129,1.4307,1.4307,1.4564,1.4872,1.4872,1.4454,1.3966,1.3966,1.3569,1.3184,1.3184,1.3338,1.3492,1.3492,1.3492,1.3492,1.3492,1.3492,1.3492,1.3492,1.3492,1.3492,1.3492,1.3492,1.3492,1.3492,1.3492,1.3119,1.215,1.2003,1.1558,1.0368,1.0218,1.0143,0.9916,0.9884,0.9884,0.9884,0.9884,0.9884,0.9884,0.9884,0.9884,0.9884,0.9884,0.9884,0.9884,1.0008,1.0051,1.0018,0.9436,0.9316,2.4647,2.4698,2.4642,2.4382,2.4302,2.4156,2.3724,2.3165,2.2694,2.2492,2.1144,1.998,0.0,0.0,1.845,1.8076,1.7619,1.7172,1.6696,1.5997,1.5502,0.0,0.0,0.0,0.0,0.0,0.0,1.541,0.0,1.541,1.541,1.541,1.541,1.541,1.541,1.541,1.541,1.541,1.5507,1.5672,1.5701,1.5836,1.6085,1.6085,1.621,1.6374,1.6413,1.6413,1.6413,1.6413,1.6413,1.6413,1.6413,1.6413,1.6407,1.6367,1.6326,1.6195,1.5222,1.4833,1.4742,1.4742,1.4949,1.524,1.524,1.494,1.4605,1.4605,1.4065,1.3492,1.3492,1.3492,1.3492,1.3492,1.3492,1.3492,1.3492,1.3492,1.3492,1.3492,1.3492,1.3492,1.3492,1.3492,1.3492,1.3492,1.3492,1.3273,1.2673,1.2599,1.215,1.0962,1.085,1.0594,0.9997,0.9954,0.9922,0.9922,0.9884,0.9884,0.9884,0.9884,0.9889,0.99,0.99,0.9906,0.9922,1.0196,1.0309,1.0315,1.0078,1.0009,2.4827,2.4768,2.4837,2.4772,2.4271,2.3846,2.4057,2.3724,2.3076,2.2045,2.1124,2.0099,0.0,0.0,0.0,1.7918,1.7889,0.0,1.7137,1.65,0.0,0.0,0.0,1.541,1.541,1.541,0.0,0.0,1.541,1.541,1.541,1.541,1.541,1.541,1.541,1.541,1.541,1.541,1.5439,1.5478,1.5643,1.573,1.5817,1.5999,1.6114,1.6181,1.6345,1.6413,1.6413,1.6413,1.6413,1.6413,1.6413,1.6413,1.6436,1.6723,1.6789,1.6707,1.64,1.6032,1.5615,1.5212,1.5334,1.5651,1.5651,1.5147,1.4605,1.4605,1.4065,1.3492,1.3492,1.3492,1.3492,1.3492,1.3492,1.3492,1.3492,1.3492,1.3492,1.3492,1.3492,1.3492,1.3492,1.3492,1.3492,1.3492,1.3492,1.3273,1.2673,1.2599,1.2305,1.1558,1.1484,1.1223,1.0625,1.0556,1.0368,0.9922,0.9884,0.9884,0.9884,0.9884,1.0008,1.0196,1.0202,1.0283,1.041,1.0479,1.0506,1.0512,1.0151,1.0176,2.5562,2.5375,2.5234,2.5195,2.4542,2.3876,2.38,2.3428,2.2806,2.1656,2.0781,0.0,0.0,0.0,0.0,0.0,0.0,0.0,1.7059,1.6583,1.6112,0.0,1.541,0.0,1.541,1.541,1.541,0.0,0.0,1.541,1.541,1.541,1.541,1.541,1.541,1.541,1.541,1.541,1.541,1.541,1.5507,1.5604,1.5711,1.5865,1.5951,1.6019,0.0,1.6202,1.6278,1.6278,1.6316,1.6413,1.6413,1.6498,1.6696,1.7081,1.7369,1.7522,1.7391,1.7,1.6492,1.5704,1.5512,1.5541,1.5541,1.4999,1.4389,1.4389,1.3964,1.3492,1.3492,1.3492,1.3492,1.3492,1.3492,1.3492,1.3492,1.3492,1.3492,1.3492,1.3492,1.3492,1.3492,1.3492,1.3492,1.3492,1.3492,1.3382,1.3046,1.2973,1.2753,1.2157,1.2077,1.1855,1.126,1.0962,1.0663,1.0331,1.0067,0.997,1.0078,1.0083,1.0196,1.0439,1.0444,1.0509,1.0597,1.0735,1.0789,1.0753,1.0642,1.0689,2.6336,2.601,2.5591,2.5521,2.4843,2.4035,2.3374,2.2833,2.2236,2.1298,0.0,0.0,1.8782,0.0,1.8147,1.7403,0.0,1.7859,1.6831,1.659,1.6225,1.5477,1.541,1.541,1.541,1.541,1.541,1.541,1.541,1.541,1.541,1.541,1.541,1.541,1.541,1.541,1.541,1.541,1.541,1.541,1.541,1.5478,1.5672,1.5701,1.5769,1.5885,0.0,0.0,1.6085,1.6114,1.622,1.6374,1.6374,1.6653,1.7038,1.7369,1.7873,1.8325,1.8087,1.7691,1.7132,1.614,1.5568,1.5275,1.5133,1.4669,1.4165,1.4129,1.3811,1.3492,1.3492,1.3492,1.3492,1.3492,1.3492,1.3492,1.3492,1.3492,1.3492,1.3492,1.3492,1.3492,1.3492,1.3492,1.3492,1.3492,1.3492,1.3492,1.3492,1.3492,1.3309,1.2783,1.2709,1.2489,1.1855,1.126,1.0887,1.0812,1.0289,1.0067,1.0288,1.0326,1.0449,1.0635,1.064,1.0656,1.0689,1.0934,1.1031,1.1036,1.1209,1.1305,2.6015,2.5481,2.5118,2.5427,2.4592,2.3734,2.3748,2.3111,0.0,0.0,0.0,1.9654,1.8235,0.0,0.0,1.7767,0.0,0.0,0.0,0.0,1.6641,0.0,0.0,0.0,0.0,0.0,0.0,0.0,0.0,0.0,1.541,1.541,1.541,1.541,1.541,1.541,1.541,1.541,1.541,1.541,1.541,1.541,1.5449,1.5614,1.5701,1.5759,0.0,0.0,1.5972,1.623,1.6278,1.6181,1.6345,1.6653,1.7038,1.7369,1.7778,1.8131,1.802,1.7451,1.6638,1.6123,1.585,1.5584,1.4927,1.4605,1.4461,1.4165,1.3811,1.3492,1.3492,1.3492,1.3492,1.3492,1.3492,1.3492,1.3492,1.3492,1.3492,1.3492,1.3492,1.3492,1.3492,1.3492,1.3492,1.3492,1.3492,1.3492,1.3492,1.3492,1.3455,1.3346,1.3346,1.3083,1.2489,1.1892,1.1335,1.0812,1.0456,1.025,1.0293,1.0476,1.0686,1.0918,1.0923,1.1025,1.1187,1.1225,1.1241,1.1246,1.1289,1.1305,2.6241,2.5703,2.5256,2.5446,2.4871,2.404,2.3123,0.0,0.0,0.0,0.0,0.0,1.8023,0.0,0.0,0.0,0.0,0.0,0.0,0.0,0.0,0.0,0.0,0.0,0.0,0.0,0.0,0.0,0.0,0.0,1.541,1.541,1.541,1.541,1.541,1.541,1.541,1.541,1.541,1.541,1.541,1.541,1.541,1.5507,1.5546,1.5575,0.0,0.0,1.5827,1.6134,1.6181,1.6114,1.6316,1.6611,1.694,1.6809,1.7067,1.7427,1.7073,1.655,1.5965,1.5578,1.5204,1.4892,1.4677,1.4317,1.3992,1.3811,1.3637,1.3492,1.3492,1.3492,1.3492,1.3492,1.3492,1.3492,1.3492,1.3492,1.3492,1.3492,1.3492,1.3492,1.3492,1.3492,1.3492,1.3492,1.3492,1.3492,1.3492,1.3492,1.3492,1.3492,1.3492,1.3273,1.2636,1.204,1.1502,1.1044,1.0567,1.0401,1.0643,1.0756,1.0929,1.1171,1.1176,1.1187,1.1305,1.1305,1.1305,1.1305,1.1305,1.1305,2.6331,2.5868,2.537,2.537,2.4985,2.4164,2.2447,2.1948,0.0,0.0,0.0,0.0,0.0,0.0,0.0,0.0,0.0,0.0,0.0,0.0,0.0,0.0,0.0,0.0,0.0,0.0,0.0,0.0,0.0,0.0,0.0,1.541,1.541,1.541,1.541,1.541,1.541,1.541,1.541,1.541,1.541,1.541,1.541,1.541,1.541,1.541,0.0,0.0,0.0,1.5951,1.6066,1.6095,1.6249,1.6556,1.6847,1.63,1.6397,1.6768,1.6184,1.5693,1.5286,1.5073,1.4661,1.4238,1.4317,1.4029,1.3601,1.3528,1.3492,1.3492,1.3492,1.3492,1.3492,1.3492,1.3492,1.3492,1.3492,1.3492,1.3492,1.3492,1.3492,1.3492,1.3492,1.3492,1.3492,1.3492,1.3492,1.3492,1.3492,1.3492,1.3492,1.3492,1.3382,1.3185,1.2917,1.2249,1.1727,1.1492,1.0954,1.0767,1.0972,1.1036,1.1155,1.1305,1.1305,1.1305,1.1305,1.1305,1.1305,1.1305,1.1305,1.1305,2.5778,2.5424,2.4962,2.4962,2.4338,2.3441,2.2424,0.0,0.0,0.0,0.0,0.0,0.0,0.0,0.0,0.0,0.0,0.0,0.0,0.0,0.0,0.0,0.0,0.0,0.0,0.0,0.0,0.0,0.0,0.0,0.0,1.541,1.541,1.541,1.541,1.541,1.541,1.541,1.541,1.541,1.541,1.541,1.541,1.541,1.541,1.541,0.0,0.0,0.0,1.5788,1.5914,1.5943,1.6066,1.6457,1.6847,1.63,1.6307,1.6559,1.6158,1.5411,1.4788,1.5286,1.5054,1.4425,1.3783,1.3811,1.3956,1.3601,1.3492,1.3492,1.3492,1.3492,1.3492,1.3492,1.3492,1.3492,1.3492,1.3492,1.3492,1.3492,1.3492,1.3492,1.3492,1.3492,1.3492,1.3492,1.3492,1.3492,1.3492,1.3492,1.3492,1.3492,1.301,1.3012,1.3796,1.282,1.2202,1.2357,1.2054,1.1603,1.1024,1.1198,1.1284,1.1305,1.1305,1.1305,1.1305,1.1305,1.1305,1.1305,1.1305,1.1305,2.6095,2.5994,2.5612,2.504,2.4489,2.369,2.2137,0.0,0.0,0.0,1.9176,1.8822,1.7948,0.0,0.0,0.0,0.0,0.0,0.0,0.0,0.0,0.0,0.0,0.0,0.0,0.0,0.0,0.0,0.0,0.0,0.0,1.541,1.541,1.541,1.541,1.541,1.541,1.541,1.541,1.541,1.541,1.541,1.541,1.541,1.541,1.541,0.0,0.0,0.0,1.5759,1.5856,1.5788,1.6009,1.6148,1.6162,1.5592,1.5391,1.5324,1.4688,1.4258,1.3985,1.4238,1.4129,1.392,1.3884,1.3811,1.371,1.3564,1.3492,1.3492,1.3492,1.3492,1.3492,1.3492,1.3492,1.3492,1.3492,1.3492,1.3492,1.3492,1.3492,1.3492,1.3492,1.3492,1.3492,1.3492,1.3492,1.3492,1.3492,1.3492,1.3492,1.3492,1.3309,1.3211,1.3454,1.2662,1.2124,1.1997,1.1485,1.1059,1.0772,1.1004,1.1133,1.1133,1.123,1.1305,1.1305,1.1305,1.1305,1.1305,1.1305,1.1305,2.5813,2.5935,2.5723,2.4922,2.4319,2.3459,0.0,0.0,0.0,1.9438,1.9064,1.8688,1.7928,1.77,1.7393,0.0,0.0,0.0,0.0,0.0,0.0,0.0,0.0,0.0,0.0,0.0,0.0,0.0,0.0,0.0,0.0,0.0,1.541,1.541,1.541,1.541,1.541,1.541,1.541,1.541,1.541,1.541,1.541,1.541,1.541,0.0,0.0,0.0,0.0,1.5662,1.5604,1.543,1.5623,1.5555,1.5306,1.4889,1.4597,1.438,1.3879,1.3601,1.3492,1.3492,1.3492,1.3564,1.3848,1.371,1.3492,1.3492,1.3492,1.3492,1.3492,1.3492,1.3492,1.3492,1.3492,1.3492,1.3492,1.3492,1.3492,1.3492,1.3492,1.3492,1.3492,1.3492,1.3492,1.3492,1.3492,1.3492,1.3492,1.3492,1.3536,1.3631,1.3638,1.3621,1.3512,1.2911,1.2485,1.2367,1.1589,1.1071,1.0875,1.0876,1.0912,1.0982,1.1155,1.1236,1.1305,1.1305,1.1305,1.1305,1.1305,1.1305,2.457,2.482,2.4906,2.4431,2.3502,2.2503,0.0,0.0,0.0,0.0,1.8784,1.8364,1.7888,1.7475,1.7052,1.6586,0.0,0.0,0.0,0.0,0.0,0.0,0.0,0.0,0.0,0.0,0.0,0.0,0.0,0.0,0.0,0.0,1.541,1.541,1.541,1.541,1.541,1.541,1.541,1.541,1.541,1.541,1.541,1.541,0.0,0.0,0.0,0.0,0.0,1.541,1.5118,1.4706,1.4706,1.4557,1.4322,1.4308,1.4229,1.4087,1.4086,1.3848,1.3492,1.3492,1.3492,1.3492,1.3492,1.3492,1.3492,1.3492,1.3492,1.3492,1.3492,1.3492,1.3492,1.3492,1.3492,1.3492,1.3492,1.3492,1.3492,1.3492,1.3492,1.3492,1.3492,1.3492,1.3492,1.3492,1.3492,1.3492,1.3492,1.3492,1.3623,1.3945,1.3975,1.4144,1.4474,1.3942,1.3665,1.3872,1.3007,1.2181,1.1513,1.0915,1.0751,1.0977,1.0988,1.1106,1.1305,1.1305,1.1305,1.1305,1.1305,1.1305,2.4165,2.4143,2.3919,2.3387,2.247,2.1515,2.0925,0.0,0.0,0.0,1.8841,1.8364,1.7888,1.7475,1.7052,1.6586,1.6479,0.0,0.0,0.0,0.0,0.0,0.0,0.0,0.0,0.0,0.0,0.0,0.0,0.0,0.0,0.0,1.541,1.541,1.541,1.541,1.541,1.541,1.541,1.541,1.541,1.541,1.541,1.541,0.0,0.0,0.0,0.0,0.0,1.541,1.5323,1.5147,1.4834,1.4731,1.4717,1.4101,1.3958,1.4001,1.3774,1.3596,1.3492,1.3492,1.3492,1.3492,1.3492,1.3492,1.3492,1.3492,1.3492,1.3492,1.3492,1.3492,1.3492,1.3492,1.3492,1.3492,1.3492,1.3492,1.3492,1.3492,1.3492,1.3492,1.3492,1.3492,1.3492,1.3492,1.3492,1.3492,1.3492,1.3689,1.3865,1.4005,1.4377,1.4677,1.4747,1.3975,1.3339,1.3114,1.217,1.1241,1.0456,1.0388,1.0509,1.074,1.0902,1.1106,1.1305,1.1305,1.1305,1.1305,1.1305,1.1305,0.0,2.3356,2.3242,2.2705,2.1784,0.0,0.0,0.0,0.0,0.0,0.0,1.8147,1.7848,1.7331,1.6842,1.6543,1.6479,0.0,0.0,0.0,0.0,0.0,0.0,0.0,0.0,0.0,0.0,0.0,0.0,0.0,0.0,0.0,1.541,1.541,1.541,1.541,1.541,1.541,1.541,1.541,1.541,1.541,1.541,0.0,0.0,0.0,0.0,0.0,0.0,1.541,1.5264,1.503,1.4736,1.4469,1.4195,1.3805,1.3664,1.3599,1.355,1.3499,1.3492,1.3492,1.3492,1.3492,1.3492,1.3492,1.3492,1.3492,1.3492,1.3492,1.3492,1.3492,1.3492,1.3492,1.3492,1.3492,1.3492,1.3492,1.3492,1.3492,1.3492,1.3492,1.3492,1.3492,1.3492,1.3492,1.3492,1.3492,1.3492,1.3777,1.4071,1.4188,1.4633,1.49,1.49,1.4237,1.365,1.3228,1.2049,1.1135,1.0599,1.0297,1.0266,1.0463,1.0735,1.0972,1.1171,1.1262,1.1305,1.1305,1.1305,1.1305,0.0,0.0,0.0,0.0,0.0,0.0,0.0,0.0,0.0,0.0,0.0,1.7828,1.7808,1.711,1.6543,1.65,1.6457,0.0,0.0,0.0,0.0,0.0,0.0,0.0,0.0,0.0,0.0,0.0,0.0,0.0,0.0,0.0,0.0,1.541,1.541,1.541,1.541,1.541,1.541,1.541,1.541,1.541,1.541,0.0,0.0,0.0,0.0,0.0,0.0,1.541,1.503,1.4499,1.444,1.3833,1.305,1.3374,1.3283,1.3005,1.3435,1.3532,1.3462,1.3484,1.3492,1.3492,1.3492,1.3492,1.3492,1.3492,1.3492,1.3492,1.3492,1.3492,1.3492,1.3492,1.3492,1.3492,1.3492,1.3492,1.3492,1.3492,1.3492,1.3492,1.3492,1.3492,1.3492,1.3492,1.3492,1.3506,1.3528,1.3814,1.4181,1.4504,1.4765,1.4893,1.4871,1.464,1.4326,1.3966,1.2584,1.1744,1.1632,1.055,1.0078,1.0288,1.0536,1.0772,1.1009,1.1198,1.1305,1.1305,1.1305,1.1305,0.0,0.0,0.0,0.0,0.0,0.0,0.0,0.0,0.0,0.0,0.0,1.8226,1.7868,1.7372,1.6926,1.6565,0.0,0.0,0.0,0.0,0.0,0.0,0.0,0.0,0.0,0.0,0.0,0.0,0.0,0.0,0.0,0.0,0.0,1.541,1.541,1.541,1.541,1.541,1.541,1.541,1.541,1.541,1.541,0.0,0.0,0.0,0.0,0.0,0.0,1.541,1.503,1.444,1.3932,1.3442,1.2956,1.2608,1.2513,1.2656,1.3024,1.3125,1.3162,1.3411,1.3492,1.3492,1.3492,1.3492,1.3492,1.3492,1.3492,1.3492,1.3492,1.3492,1.3492,1.3492,1.3492,1.3492,1.3492,1.3492,1.3492,1.3492,1.3492,1.3492,1.3492,1.3492,1.3492,1.3492,1.3492,1.3587,1.3836,1.4188,1.4479,1.4794,1.4856,1.4805,1.4596,1.4555,1.4171,1.3345,1.2726,1.1966,1.1037,1.0738,1.0492,1.0288,1.0692,1.102,1.1219,1.1278,1.1305,1.1305,1.1305,1.1305,0.0,0.0,0.0,0.0,0.0,0.0,0.0,0.0,0.0,0.0,0.0,0.0,1.7888,0.0,0.0,0.0,0.0,0.0,0.0,0.0,0.0,0.0,0.0,0.0,0.0,0.0,0.0,0.0,0.0,0.0,0.0,0.0,0.0,0.0,1.5449,1.541,1.541,1.541,1.541,1.541,1.541,1.541,1.541,0.0,0.0,0.0,0.0,0.0,1.541,1.541,1.503,1.4469,1.4112,1.3463,1.2726,1.2405,1.2288,1.2308,1.2643,1.2972,1.3258,1.344,1.3492,1.3492,1.3492,1.3492,1.3492,1.3492,1.3492,1.3492,1.3492,1.3492,1.3492,1.3492,1.3492,1.3492,1.3492,1.3492,1.3492,1.3492,1.3492,1.3492,1.3492,1.3492,1.3492,1.3492,1.3492,1.3616,1.3945,1.4306,1.4589,1.4863,1.49,1.4769,1.4533,1.4372,1.3985,1.3322,1.2843,1.2187,1.126,1.0962,1.0696,1.0444,1.0805,1.1106,1.1305,1.1305,1.1305,1.1305,1.1305,1.1305,0.0,0.0,0.0,0.0,0.0,0.0,0.0,0.0,0.0,0.0,0.0,0.0,0.0,0.0,0.0,0.0,0.0,0.0,0.0,0.0,0.0,0.0,0.0,0.0,0.0,0.0,0.0,0.0,0.0,0.0,0.0,0.0,0.0,0.0,1.5478,1.541,1.541,1.541,1.541,1.541,1.541,1.541,1.541,1.541,0.0,0.0,0.0,0.0,1.541,1.541,1.4971,1.435,1.435,1.3524,1.2358,1.2358,1.2187,1.1981,1.2361,1.2914,1.3433,1.3477,1.3492,1.3492,1.3492,1.3492,1.3492,1.3492,1.3492,1.3492,1.3492,1.3492,1.3492,1.3492,1.3492,1.3492,1.3492,1.3492,1.3492,1.3492,1.3492,1.3492,1.3492,1.3492,1.3492,1.3492,1.3536,1.3689,1.4011,1.434,1.4662,1.4944,1.4885,1.4765,1.4533,1.4166,1.3792,1.3514,1.301,1.2415,1.1744,1.1079,1.0683,1.0587,1.0864,1.1106,1.1305,1.1305,1.1305,1.1305,1.1305,1.1305,0.0,0.0,0.0,0.0,0.0,0.0,0.0,0.0,0.0,0.0,0.0,0.0,0.0,0.0,0.0,0.0,0.0,0.0,0.0,0.0,0.0,0.0,0.0,0.0,0.0,0.0,0.0,0.0,0.0,0.0,0.0,0.0,0.0,0.0,0.0,1.541,1.541,1.541,1.541,1.541,1.541,1.541,1.541,1.541,1.541,0.0,0.0,0.0,1.541,1.541,1.4697,1.3653,1.3653,1.2864,1.174,1.174,1.1714,1.1753,1.2314,1.2733,1.3126,1.3404,1.3492,1.3492,1.3492,1.3492,1.3492,1.3492,1.3492,1.3492,1.3492,1.3492,1.3492,1.3492,1.3492,1.3492,1.3492,1.3492,1.3492,1.3492,1.3492,1.3492,1.3492,1.3492,1.3492,1.3492,1.3733,1.4026,1.4394,1.4677,1.4951,1.5279,1.4867,1.4562,1.4511,1.3916,1.355,1.3499,1.3419,1.2856,1.1744,1.085,1.0442,1.0592,1.0864,1.1106,1.1305,1.1305,1.1305,1.1305,1.1305,1.1305,0.0,0.0,0.0,0.0,0.0,0.0,0.0,0.0,0.0,0.0,0.0,0.0,0.0,0.0,0.0,0.0,0.0,0.0,0.0,0.0,0.0,0.0,0.0,0.0,0.0,0.0,0.0,0.0,0.0,0.0,0.0,0.0,0.0,0.0,0.0,0.0,1.541,1.541,1.541,1.541,1.541,1.541,1.541,1.541,1.541,0.0,0.0,1.541,1.541,1.541,1.4844,1.3992,1.3631,1.2926,1.2035,1.1709,1.1701,1.1882,1.2358,1.2738,1.306,1.3389,1.3492,1.3492,1.3492,1.3492,1.3492,1.3492,1.3492,1.3492,1.3492,1.3492,1.3492,1.3492,1.3492,1.3492,1.3492,1.3492,1.3492,1.3492,1.3492,1.3492,1.3492,1.3492,1.3492,1.3492,1.377,1.4137,1.4467,1.4743,1.4958,1.5104,1.475,1.4438,1.4262,1.377,1.3492,1.3492,1.29,1.2334,1.1923,1.097,1.0589,1.0816,1.1058,1.1193,1.1305,1.1305,1.1305,1.1305,1.1305,1.1305,2.1414,0.0,0.0,0.0,0.0,0.0,0.0,0.0,0.0,0.0,0.0,0.0,0.0,0.0,0.0,0.0,0.0,0.0,0.0,0.0,0.0,0.0,0.0,0.0,0.0,0.0,0.0,0.0,0.0,0.0,0.0,0.0,0.0,0.0,0.0,0.0,1.541,1.541,1.541,1.541,1.541,1.541,1.541,1.541,1.541,1.541,1.541,1.541,1.541,1.541,1.503,1.444,1.3923,1.3221,1.242,1.1833,1.1714,1.1945,1.2353,1.2687,1.2958,1.3367,1.3492,1.3492,1.3492,1.3492,1.3492,1.3492,1.3492,1.3492,1.3492,1.3492,1.3492,1.3492,1.3492,1.3492,1.3492,1.3492,1.3492,1.3492,1.3492,1.3492,1.3492,1.3492,1.3492,1.3492,1.3843,1.4225,1.4474,1.4816,1.4988,1.4907,1.4655,1.4342,1.3901,1.3638,1.3492,1.3492,1.2378,1.1827,1.2107,1.1135,1.0746,1.0977,1.1182,1.1305,1.1305,1.1305,1.1305,1.1305,1.1305,1.1305,2.1385,2.1858,0.0,0.0,0.0,0.0,0.0,0.0,0.0,0.0,0.0,0.0,0.0,0.0,0.0,0.0,0.0,0.0,0.0,0.0,0.0,0.0,0.0,0.0,0.0,0.0,0.0,0.0,0.0,0.0,0.0,0.0,0.0,0.0,0.0,0.0,1.541,1.541,1.541,1.541,1.541,1.541,1.541,1.541,1.541,1.541,1.541,1.541,1.541,1.541,1.503,1.4499,1.444,1.3644,1.242,1.1833,1.1606,1.1716,1.2306,1.2507,1.2623,1.3294,1.3492,1.3492,1.3492,1.3492,1.3492,1.3492,1.3492,1.3492,1.3492,1.3492,1.3492,1.3492,1.3492,1.3492,1.3492,1.3492,1.3492,1.3492,1.3492,1.3492,1.3492,1.3492,1.3492,1.3492,1.4071,1.4482,1.4504,1.5006,1.5236,1.4936,1.4655,1.4254,1.3587,1.3506,1.3492,1.3492,1.2378,1.1827,1.2107,1.1135,1.0746,1.0977,1.1182,1.1305,1.1305,1.1305,1.1305,1.1305,1.1305,1.1305,2.1516,2.1779,0.0,0.0,0.0,0.0,0.0,0.0,0.0,0.0,0.0,0.0,0.0,0.0,0.0,0.0,0.0,0.0,0.0,0.0,0.0,0.0,0.0,0.0,0.0,0.0,0.0,0.0,0.0,0.0,0.0,0.0,0.0,0.0,0.0,0.0,0.0,1.541,1.541,1.541,1.541,1.541,1.541,1.541,1.541,1.541,1.541,1.541,1.541,1.541,1.5264,1.4971,1.4201,1.3312,1.242,1.1833,1.1591,1.1657,1.2065,1.2317,1.2592,1.3045,1.3331,1.3492,1.3492,1.3492,1.3492,1.3492,1.3492,1.3492,1.3492,1.3492,1.3492,1.3492,1.3492,1.3492,1.3492,1.3492,1.3492,1.3492,1.3492,1.3492,1.3492,1.3492,1.3565,1.377,1.4218,1.4577,1.4735,1.5112,1.5226,1.4699,1.4179,1.3762,1.3514,1.3492,1.3346,1.2973,1.2322,1.2056,1.2296,1.1369,1.0966,1.1166,1.1262,1.1305,1.1305,1.1305,1.1305,1.1305,1.1305,1.1305,2.1686,2.181,0.0,0.0,0.0,0.0,0.0,0.0,0.0,0.0,0.0,0.0,0.0,0.0,0.0,0.0,0.0,0.0,0.0,0.0,0.0,0.0,0.0,0.0,0.0,0.0,0.0,0.0,0.0,0.0,0.0,0.0,0.0,0.0,0.0,0.0,0.0,1.541,1.541,1.541,1.541,1.541,1.541,1.541,1.541,1.541,1.541,1.541,1.541,1.541,1.541,1.5264,1.3983,1.323,1.2734,1.1895,1.1591,1.1643,1.1926,1.2215,1.2577,1.2899,1.3228,1.3492,1.3492,1.3492,1.3492,1.3492,1.3492,1.3492,1.3492,1.3492,1.3492,1.3492,1.3492,1.3492,1.3492,1.3492,1.3492,1.3492,1.3492,1.3492,1.3492,1.3492,1.3601,1.3931,1.4298,1.4582,1.4863,1.5185,1.5182,1.4577,1.3887,1.3492,1.3492,1.3492,1.3236,1.2636,1.2355,1.2186,1.2108,1.1389,1.1101,1.13,1.1305,1.1305,1.1305,1.1305,1.1305,1.1305,1.1305,1.1348,0.0,0.0,0.0,0.0,0.0,0.0,0.0,0.0,0.0,0.0,0.0,0.0,0.0,0.0,0.0,0.0,0.0,0.0,0.0,0.0,0.0,0.0,0.0,0.0,0.0,0.0,0.0,0.0,0.0,0.0,0.0,0.0,0.0,0.0,0.0,0.0,0.0,1.541,1.541,1.541,1.541,1.541,1.541,1.541,1.541,1.541,1.541,1.541,1.541,1.541,1.541,1.5264,1.4013,1.3511,1.3359,1.2081,1.1622,1.1635,1.1886,1.2215,1.2543,1.2899,1.3228,1.3492,1.3492,1.3492,1.3492,1.3492,1.3492,1.3492,1.3492,1.3492,1.3492,1.3492,1.3492,1.3492,1.3492,1.3492,1.3492,1.3492,1.3492,1.3492,1.3492,1.3492,1.3609,1.3938,1.4298,1.4582,1.4863,1.5185,1.5174,1.4577,1.3887,1.3492,1.3492,1.3492,1.3236,1.2643,1.2473,1.2114,1.1513,1.1189,1.1101,1.13,1.1305,1.1305,1.1305,1.1305,1.1305,1.1305,1.1305,1.1434,2.1832,0.0,0.0,0.0,0.0,0.0,0.0,0.0,0.0,0.0,0.0,0.0,0.0,0.0,0.0,0.0,0.0,0.0,0.0,0.0,0.0,0.0,0.0,0.0,0.0,0.0,0.0,0.0,0.0,0.0,0.0,0.0,0.0,0.0,0.0,0.0,0.0,0.0,1.541,1.541,1.541,1.541,1.541,1.541,1.541,1.541,1.541,1.541,1.541,1.541,1.541,1.5352,1.4832,1.4162,1.3445,1.2916,1.2256,1.1606,1.1701,1.2058,1.2507,1.2636,1.3038,1.3492,1.3492,1.3492,1.3492,1.3492,1.3492,1.3492,1.3492,1.3492,1.3492,1.3492,1.3492,1.3492,1.3492,1.3492,1.3492,1.3492,1.3492,1.3492,1.3492,1.3492,1.3682,1.4284,1.4445,1.467,1.5177,1.497,1.4684,1.4526,1.3887,1.3492,1.3492,1.3492,1.333,1.2982,1.2583,1.2114,1.1513,1.1313,1.1236,1.1305,1.1305,1.1305,1.1305,1.1305,1.1305,1.1305,1.1305,1.1434,0.0,0.0,0.0,0.0,0.0,0.0,0.0,0.0,0.0,0.0,0.0,0.0,0.0,0.0,0.0,0.0,0.0,0.0,0.0,0.0,0.0,0.0,0.0,0.0,0.0,0.0,0.0,0.0,0.0,0.0,0.0,0.0,0.0,0.0,0.0,0.0,0.0,0.0,0.0,1.541,1.541,1.541,1.541,1.541,1.541,1.541,1.541,1.541,1.541,1.541,1.541,1.5371,1.5175,1.4604,1.3826,1.3375,1.2688,1.1919,1.1677,1.2017,1.2485,1.2485,1.2965,1.3492,1.3492,1.3492,1.3492,1.3492,1.3492,1.3492,1.3492,1.3492,1.3492,1.3492,1.3492,1.3492,1.3492,1.3492,1.3492,1.3492,1.3492,1.3492,1.3492,1.3492,1.3718,1.4408,1.4684,1.4992,1.5338,1.4867,1.4511,1.4511,1.3887,1.3492,1.3492,1.3492,1.341,1.3113,1.2674,1.2197,1.1706,1.144,1.1305,1.1305,1.1305,1.1305,1.1305,1.1305,1.1305,1.1305,1.1305,1.1482,0.0,0.0,0.0,0.0,0.0,0.0,0.0,0.0,0.0,0.0,0.0,0.0,0.0,0.0,0.0,0.0,0.0,0.0,0.0,0.0,0.0,0.0,0.0,0.0,0.0,0.0,0.0,0.0,0.0,0.0,0.0,0.0,0.0,0.0,0.0,0.0,0.0,0.0,0.0,0.0,1.541,1.541,1.541,1.541,1.541,1.541,1.541,1.541,1.541,1.541,1.5439,1.5449,1.5292,1.4964,1.445,1.3645,1.2987,1.242,1.1802,1.2017,1.2485,1.2485,1.2965,1.3492,1.3492,1.3492,1.3492,1.3492,1.3492,1.3492,1.3492,1.3492,1.3492,1.3492,1.3492,1.3492,1.3492,1.3492,1.3492,1.3492,1.3492,1.3492,1.3492,1.3492,1.3718,1.4408,1.5013,1.5389,1.5389,1.4867,1.4511,1.4511,1.3887,1.3492,1.3492,1.3492,1.3417,1.3231,1.2726,1.233,1.2129,1.1571,1.1305,1.1305,1.1305,1.1305,1.1305,1.1305,1.1305,1.1305,1.1332,1.1623,0.0,0.0,0.0,0.0,0.0,0.0,0.0,0.0,0.0,0.0,0.0,0.0,0.0,0.0,0.0,0.0,0.0,0.0,0.0,0.0,0.0,0.0,0.0,0.0,0.0,0.0,0.0,0.0,0.0,0.0,0.0,0.0,0.0,0.0,0.0,0.0,1.541,1.541,1.541,0.0,1.541,1.541,1.541,1.541,1.541,1.541,1.541,1.541,1.541,1.541,1.5615,1.5967,1.6251,1.5782,1.4921,1.4591,1.3625,1.242,1.1802,1.2017,1.2485,1.2485,1.2965,1.3492,1.3492,1.3492,1.3492,1.3492,1.3492,1.3492,1.3492,1.3492,1.3492,1.3492,1.3492,1.3492,1.3492,1.3492,1.3492,1.3492,1.3492,1.3492,1.3492,1.3492,1.3718,1.4408,1.5013,1.5389,1.5389,1.4867,1.4511,1.4511,1.3887,1.3492,1.3492,1.3492,1.3703,1.4171,1.3074,1.2613,1.3073,1.196,1.1305,1.1305,1.1305,1.1305,1.1305,1.1305,1.1305,1.1316,1.1542,1.1779,0.0,0.0,0.0,0.0,0.0,0.0,0.0,0.0,0.0,0.0,0.0,0.0,0.0,0.0,0.0,0.0,0.0,0.0,0.0,0.0,0.0,0.0,0.0,0.0,0.0,0.0,0.0,0.0,0.0,0.0,0.0,0.0,0.0,0.0,0.0,0.0,1.541,1.541,1.541,1.541,1.541,1.541,1.541,1.541,1.541,1.541,1.541,1.541,1.543,1.5635,1.5889,1.6163,1.6787,1.6545,1.5836,1.5428,1.4637,1.3571,1.2429,1.2445,1.2916,1.2586,1.2965,1.3492,1.3492,1.3492,1.3492,1.3492,1.3492,1.3492,1.3492,1.3492,1.3492,1.3492,1.3492,1.3492,1.3492,1.3492,1.3492,1.3492,1.3492,1.3492,1.3492,1.3755,1.4128,1.4618,1.5116,1.5389,1.5389,1.4867,1.4511,1.4511,1.3887,1.3492,1.3492,1.3492,1.3777,1.4467,1.3463,1.3043,1.3372,1.2369,1.1645,1.1311,1.1305,1.1305,1.1305,1.1305,1.1305,1.1316,1.1591,1.1822,0.0,0.0,0.0,0.0,0.0,0.0,0.0,0.0,0.0,0.0,0.0,0.0,0.0,0.0,0.0,0.0,0.0,0.0,0.0,0.0,0.0,0.0,0.0,0.0,0.0,0.0,0.0,0.0,0.0,0.0,0.0,0.0,0.0,0.0,0.0,1.5449,1.541,1.541,1.541,1.541,1.541,1.541,1.541,1.541,1.541,1.541,1.541,1.541,1.5449,1.5919,1.6134,1.629,1.7103,1.7168,1.674,1.606,1.5499,1.4838,1.3094,1.2941,1.3402,1.2714,1.2965,1.3492,1.3492,1.3492,1.3492,1.3492,1.3492,1.3492,1.3492,1.3492,1.3492,1.3492,1.3492,1.3492,1.3492,1.3492,1.3492,1.3492,1.3492,1.3514,1.3572,1.4077,1.4575,1.4856,1.5177,1.5389,1.5389,1.4867,1.4511,1.4511,1.3887,1.3492,1.3492,1.3492,1.3777,1.4467,1.3817,1.344,1.3584,1.2833,1.2112,1.1521,1.1348,1.1305,1.1305,1.1305,1.1327,1.1375,1.165,1.1932,0.0,0.0,0.0,0.0,0.0,0.0,0.0,0.0,0.0,0.0,0.0,0.0,0.0,0.0,0.0,0.0,0.0,0.0,0.0,0.0,0.0,0.0,0.0,0.0,0.0,0.0,0.0,0.0,0.0,0.0,0.0,0.0,1.657,1.5914,1.573,0.0,1.541,1.541,1.541,1.541,1.541,1.541,1.541,1.541,1.541,1.541,1.541,1.541,1.5449,1.5919,1.632,1.6658,1.7187,1.7344,1.7181,1.6164,1.5499,1.4838,1.3094,1.2941,1.3402,1.2714,1.2965,1.3492,1.3492,1.3492,1.3492,1.3492,1.3492,1.3492,1.3492,1.3492,1.3492,1.3492,1.3492,1.3492,1.3492,1.3492,1.3492,1.3492,1.3492,1.3587,1.3865,1.4262,1.4575,1.4856,1.5177,1.5389,1.5389,1.4867,1.4511,1.4511,1.3887,1.3492,1.3492,1.3492,1.3777,1.4467,1.3817,1.3682,1.4245,1.3039,1.2363,1.2277,1.1645,1.1305,1.1305,1.1305,1.1413,1.1661,1.1937,1.2175,0.0,0.0,0.0,0.0,0.0,0.0,0.0,0.0,0.0,0.0,0.0,0.0,0.0,0.0,0.0,0.0,0.0,0.0,0.0,0.0,0.0,0.0,0.0,0.0,0.0,0.0,0.0,0.0,0.0,0.0,0.0,1.7446,1.6814,1.6428,1.5961,0.0,1.541,1.541,1.541,1.541,1.541,1.541,1.541,1.541,1.541,1.541,1.541,1.5547,1.584,1.625,1.6699,1.7139,1.7568,1.7734,1.7613,1.6641,1.6183,1.577,1.4157,1.3802,1.3941,1.3276,1.3272,1.3492,1.3492,1.3492,1.3492,1.3492,1.3492,1.3492,1.3492,1.3492,1.3492,1.3492,1.3492,1.3492,1.3492,1.3492,1.3492,1.3492,1.3492,1.366,1.421,1.4416,1.464,1.5097,1.5294,1.5389,1.5389,1.4867,1.4511,1.4511,1.3887,1.3492,1.3492,1.3492,1.3777,1.4467,1.4184,1.413,1.4371,1.347,1.279,1.2406,1.1688,1.1305,1.1305,1.1305,1.1429,1.1704,1.1986,1.2229,0.0,0.0,0.0,0.0,0.0,0.0,0.0,0.0,0.0,0.0,0.0,0.0,0.0,0.0,0.0,0.0,0.0,0.0,0.0,0.0,0.0,0.0,0.0,0.0,0.0,0.0,0.0,0.0,0.0,0.0,1.8762,1.7831,1.7056,1.6588,1.6038,1.5633,1.541,1.541,1.541,1.541,1.541,1.541,1.541,1.541,1.541,1.541,1.541,1.5664,1.6124,1.6512,1.6992,1.7422,1.7842,1.8008,1.79,1.7019,1.6697,1.6476,1.4995,1.463,1.4665,1.3999,1.3915,1.4057,1.4057,1.3912,1.3775,1.3775,1.363,1.3492,1.3492,1.3492,1.3492,1.3492,1.3492,1.3492,1.3492,1.3492,1.3492,1.3492,1.3492,1.3704,1.4394,1.4511,1.4692,1.5294,1.5389,1.5389,1.5389,1.4867,1.4511,1.4511,1.3887,1.3492,1.3492,1.3492,1.3777,1.4467,1.4511,1.4551,1.4671,1.3857,1.3179,1.2662,1.1774,1.1305,1.1305,1.1305,1.1455,1.179,1.2013,1.2256,0.0,0.0,0.0,0.0,0.0,0.0,0.0,0.0,0.0,0.0,0.0,0.0,0.0,0.0,0.0,0.0,0.0,0.0,0.0,0.0,0.0,0.0,0.0,0.0,0.0,0.0,0.0,0.0,0.0,0.0,1.8174,1.8066,1.739,1.6,1.5914,1.573,1.541,1.541,1.541,1.541,1.541,1.541,1.541,1.541,1.541,1.541,1.541,1.5664,1.6124,1.6512,1.6992,1.7422,1.7842,1.8008,1.79,1.7019,1.6697,1.6476,1.4995,1.4961,1.5445,1.4754,1.5027,1.5604,1.5604,1.5108,1.453,1.453,1.4049,1.3492,1.3492,1.3492,1.3492,1.3492,1.3492,1.3492,1.3492,1.3492,1.3492,1.3492,1.3492,1.3704,1.4394,1.4511,1.4692,1.5294,1.5389,1.5389,1.5389,1.4867,1.4511,1.4511,1.3887,1.3492,1.3492,1.3492,1.3777,1.4467,1.4511,1.4757,1.5318,1.4075,1.3392,1.3355,1.1989,1.1305,1.1305,1.1305,1.1585,1.2078,1.2089,1.2348,0.0,0.0,0.0,0.0,0.0,0.0,0.0,0.0,0.0,0.0,0.0,0.0,0.0,0.0,0.0,0.0,0.0,0.0,0.0,0.0,0.0,0.0,0.0,0.0,0.0,0.0,0.0,0.0,0.0,0.0,1.8709,1.8321,1.782,1.7213,1.6343,1.573,1.541,1.541,1.541,1.541,1.541,1.541,1.541,1.541,1.541,1.543,1.5703,1.6084,1.6504,1.6638,1.7116,1.7803,1.7949,1.8008,1.79,1.7019,1.6697,1.6539,1.5445,1.5299,1.5574,1.5307,1.5433,1.571,1.571,1.5525,1.5207,1.4744,1.4394,1.4086,1.363,1.3492,1.3492,1.3492,1.3492,1.3492,1.3492,1.3492,1.3492,1.3492,1.3492,1.3704,1.4394,1.4511,1.4692,1.5294,1.5389,1.5389,1.5389,1.4867,1.4511,1.4511,1.3887,1.3492,1.3492,1.3492,1.3777,1.4467,1.4511,1.4757,1.536,1.4117,1.3398,1.3398,1.2032,1.1305,1.1305,1.1455,1.1736,1.2094,1.221,1.2452,0.0,0.0,0.0,0.0,0.0,0.0,0.0,0.0,0.0,0.0,0.0,0.0,0.0,0.0,0.0,0.0,0.0,0.0,0.0,0.0,0.0,0.0,0.0,0.0,0.0,0.0,0.0,0.0,0.0,0.0,1.9013,1.8629,1.812,1.7562,1.6361,1.5633,1.541,1.541,1.541,1.541,1.541,1.541,1.541,1.541,1.541,1.5439,1.5909,1.6318,1.6716,1.6863,1.7373,1.8008,1.8008,1.8008,1.79,1.7019,1.6697,1.658,1.5683,1.5643,1.5968,1.5968,1.6187,1.6481,1.6481,1.6306,1.5948,1.5171,1.478,1.443,1.3702,1.3492,1.3492,1.3492,1.3492,1.3492,1.3492,1.3492,1.3492,1.3492,1.3492,1.3704,1.4394,1.4511,1.4692,1.5294,1.5389,1.5389,1.5389,1.4867,1.4511,1.4511,1.3887,1.3492,1.3492,1.3492,1.3777,1.4467,1.4511,1.4757,1.536,1.4321,1.3646,1.3398,1.224,1.1564,1.1305,1.1585,1.1817,1.21,1.2301,1.2538,0.0,0.0,0.0,0.0,0.0,0.0,0.0,0.0,0.0,0.0,0.0,0.0,0.0,0.0,0.0,0.0,0.0,0.0,0.0,0.0,0.0,0.0,0.0,0.0,0.0,0.0,0.0,0.0,0.0,1.9025,1.8987,1.8987,1.8321,1.6849,1.5921,1.5439,1.541,1.541,1.541,1.541,1.541,1.541,1.541,1.541,1.541,1.5439,1.5919,1.6328,1.6736,1.7207,1.7627,1.8008,1.8008,1.8008,1.79,1.7019,1.6697,1.658,1.5683,1.5966,1.6697,1.6697,1.7282,1.8008,1.8008,1.751,1.6759,1.5956,1.5207,1.4502,1.3739,1.3528,1.3492,1.3492,1.3492,1.3492,1.3492,1.3492,1.3492,1.3492,1.3506,1.3711,1.4401,1.4518,1.4699,1.5294,1.5389,1.5389,1.5389,1.4874,1.4518,1.4511,1.3894,1.3506,1.3492,1.3492,1.3777,1.4467,1.4511,1.4757,1.536,1.4741,1.4062,1.3392,1.2753,1.2026,1.1305,1.1591,1.1873,1.21,1.2307,1.2544,2.2673,0.0,0.0,0.0,0.0,0.0,0.0,0.0,0.0,0.0,0.0,0.0,0.0,0.0,0.0,0.0,0.0,0.0,0.0,0.0,0.0,0.0,0.0,0.0,0.0,0.0,0.0,0.0,0.0,1.9422,1.9013,1.8987,1.8321,1.6849,1.6539,1.6093,1.541,1.541,1.541,1.541,1.541,1.541,1.541,1.541,1.541,1.5449,1.619,1.659,1.6736,1.7207,1.7627,1.8008,1.8008,1.8008,1.79,1.7019,1.6697,1.658,1.5683,1.5966,1.6697,1.6697,1.7282,1.8008,1.8008,1.7862,1.7545,1.6768,1.6402,1.5948,1.4645,1.3912,1.3492,1.3492,1.3492,1.3492,1.3492,1.3492,1.3492,1.3492,1.3689,1.402,1.4438,1.4655,1.4915,1.533,1.5389,1.5389,1.5389,1.5024,1.4728,1.4533,1.4137,1.3748,1.3514,1.3492,1.3777,1.4467,1.4511,1.4757,1.536,1.4741,1.4062,1.3392,1.2753,1.2026,1.1305,1.1752,1.2029,1.21,1.2521,1.2748,0.0,0.0,0.0,0.0,0.0,0.0,0.0,2.3046,0.0,0.0,0.0,0.0,0.0,0.0,0.0,0.0,0.0,0.0,0.0,0.0,0.0,0.0,0.0,0.0,0.0,0.0,0.0,0.0,1.9618,1.9643,1.9344,1.9001,1.8282,1.7174,1.6782,1.6197,1.541,1.541,1.541,1.541,1.541,1.541,1.541,1.541,1.541,1.5459,1.6317,1.6697,1.6746,1.7393,1.7793,1.8008,1.8008,1.8008,1.79,1.7019,1.6697,1.658,1.5683,1.5966,1.6697,1.6697,1.7282,1.8008,1.8008,1.8008,1.7872,1.7113,1.6655,1.6123,1.4922,1.4294,1.3876,1.3564,1.3492,1.3492,1.3492,1.3492,1.3492,1.3492,1.3762,1.4122,1.4452,1.4735,1.5009,1.5338,1.5389,1.5389,1.5389,1.5104,1.4834,1.4684,1.426,1.3901,1.3718,1.3697,1.3954,1.4474,1.4589,1.4896,1.5367,1.5041,1.4489,1.3815,1.3173,1.2431,1.1639,1.1959,1.2197,1.2402,1.2678,1.2813,0.0,0.0,0.0,0.0,0.0,0.0,2.2761,2.2802,2.2854,0.0,0.0,0.0,0.0,0.0,0.0,0.0,0.0,0.0,0.0,0.0,0.0,0.0,0.0,0.0,0.0,0.0,0.0,1.9798,1.9798,1.9798,1.9798,1.9056,1.8352,1.7743,1.6884,1.614,1.5526,1.5439,1.541,1.541,1.541,1.541,1.541,1.541,1.541,1.5459,1.6317,1.6697,1.6765,1.7656,1.8008,1.8008,1.8008,1.8008,1.79,1.7019,1.6697,1.658,1.5771,1.6005,1.6707,1.6755,1.7321,1.8008,1.8008,1.8008,1.7862,1.7226,1.6446,1.5666,1.5029,1.4744,1.443,1.3775,1.3564,1.3492,1.3492,1.3492,1.3506,1.3543,1.3814,1.4166,1.446,1.4765,1.5053,1.5345,1.5389,1.5389,1.5389,1.5133,1.4944,1.4907,1.4428,1.4055,1.4027,1.4011,1.4196,1.4489,1.4765,1.5046,1.5374,1.5389,1.5082,1.4398,1.3672,1.2913,1.2094,1.2121,1.237,1.2813,1.2813,1.2813,0.0,0.0,0.0,0.0,0.0,0.0,2.2172,2.2533,2.2703,0.0,0.0,0.0,0.0,0.0,0.0,0.0,0.0,0.0,0.0,0.0,0.0,0.0,0.0,0.0,0.0,0.0,1.9798,1.9798,1.9798,1.9798,1.9798,1.9643,1.9202,1.8501,1.7731,1.6996,1.6293,1.569,1.541,1.541,1.541,1.541,1.541,1.541,1.541,1.5459,1.6317,1.6697,1.6765,1.7656,1.8008,1.8008,1.8008,1.8008,1.79,1.7019,1.6697,1.6619,1.6113,1.6289,1.6755,1.7139,1.7598,1.8008,1.8008,1.8008,1.7974,1.7828,1.7226,1.662,1.6481,1.5525,1.4565,1.443,1.3949,1.3492,1.3492,1.3492,1.3572,1.3836,1.415,1.4438,1.4496,1.4948,1.5316,1.5382,1.5389,1.5389,1.5389,1.533,1.5192,1.4929,1.4791,1.4545,1.4026,1.4262,1.4438,1.4504,1.4765,1.5046,1.5374,1.5389,1.5082,1.4398,1.3379,1.2599,1.2094,1.2248,1.249,1.2813,1.2813,1.2813,0.0,0.0,0.0,2.231,0.0,0.0,0.0,2.2453,2.2557,0.0,0.0,0.0,0.0,0.0,0.0,0.0,0.0,0.0,0.0,0.0,0.0,0.0,0.0,0.0,0.0,0.0,1.9798,1.9798,1.9798,1.9798,1.9798,1.9656,1.9279,1.862,1.8108,1.7396,1.6397,1.6026,1.569,1.541,1.541,1.541,1.541,1.541,1.541,1.5459,1.6317,1.6697,1.6765,1.7656,1.8008,1.8008,1.8008,1.8008,1.79,1.7019,1.6697,1.6638,1.6251,1.6357,1.6775,1.7246,1.7666,1.8008,1.8008,1.8008,1.8008,1.8008,1.7725,1.7364,1.701,1.6332,1.5552,1.478,1.4322,1.3949,1.3564,1.3492,1.3594,1.3916,1.4284,1.4562,1.4677,1.5109,1.5389,1.5389,1.5389,1.5389,1.5389,1.5389,1.533,1.5163,1.5002,1.4769,1.4487,1.4611,1.4706,1.4706,1.4966,1.5214,1.5382,1.5389,1.5082,1.4398,1.3742,1.3132,1.2597,1.2598,1.2651,1.2813,1.2813,1.2813,0.0,0.0,0.0,0.0,0.0,2.2247,0.0,0.0,0.0,2.2436,0.0,0.0,0.0,0.0,0.0,0.0,0.0,0.0,0.0,0.0,0.0,0.0,0.0,0.0,0.0,0.0,1.9698,1.9798,1.971,1.9698,1.9798,1.9591,1.9239,1.8738,1.8255,1.7534,1.6528,1.6255,1.5882,1.541,1.5449,1.5449,1.5449,1.5449,1.5449,1.5498,1.6348,1.6697,1.6765,1.7656,1.8008,1.8008,1.8008,1.8008,1.79,1.7019,1.6697,1.6648,1.6318,1.6436,1.6785,1.7334,1.7734,1.8008,1.8008,1.8008,1.8008,1.8008,1.8008,1.7862,1.726,1.701,1.6585,1.5349,1.4816,1.443,1.384,1.3601,1.3609,1.4034,1.4328,1.4575,1.4849,1.517,1.5389,1.5389,1.5389,1.5389,1.5389,1.5389,1.5389,1.5389,1.5155,1.4973,1.4907,1.4958,1.4966,1.4907,1.5206,1.5389,1.5389,1.5389,1.5082,1.4398,1.419,1.3761,1.3099,1.2908,1.2813,1.2813,1.2813,1.2813,0.0,0.0,0.0,0.0,2.224,0.0,0.0,0.0,2.1941,2.1613,0.0,0.0,0.0,0.0,0.0,0.0,0.0,0.0,0.0,0.0,0.0,0.0,0.0,0.0,0.0,0.0,0.0,1.9761,1.9346,1.9296,1.9773,1.9773,1.9682,1.9474,1.8286,1.7534,1.7268,1.6093,1.5468,1.541,1.5575,1.5672,1.5672,1.5672,1.5672,1.5693,1.6388,1.6697,1.6765,1.7656,1.8008,1.8008,1.8008,1.8008,1.79,1.7019,1.6697,1.6697,1.6648,1.6658,1.6833,1.7676,1.7969,1.8008,1.8008,1.8008,1.8008,1.8008,1.8008,1.7974,1.7906,1.7398,1.6862,1.6689,1.5587,1.4565,1.4502,1.3949,1.3675,1.4335,1.4482,1.4575,1.4849,1.517,1.5389,1.5389,1.5389,1.5389,1.5389,1.5389,1.5389,1.5389,1.5352,1.5214,1.4929,1.5163,1.5206,1.4922,1.5206,1.5389,1.5389,1.5389,1.5082,1.4398,1.419,1.3761,1.3099,1.2908,1.2813,1.2813,1.2813,1.2813,0.0,0.0,0.0,0.0,0.0,0.0,0.0,0.0,2.2063,0.0,0.0,0.0,0.0,0.0,0.0,0.0,0.0,0.0,0.0,0.0,0.0,0.0,0.0,0.0,0.0,0.0,0.0,0.0,0.0,1.9572,1.9798,1.9734,1.9604,1.9486,1.8869,1.8159,1.7407,1.6754,1.6151,1.5575,1.5672,1.5701,1.5701,1.5701,1.5701,1.5722,1.6419,1.6697,1.6765,1.7656,1.8008,1.8008,1.8008,1.8008,1.79,1.7019,1.6863,1.708,1.6785,1.6863,1.7207,1.7812,1.8008,1.8008,1.8008,1.8008,1.8008,1.8008,1.8008,1.8008,1.8008,1.7759,1.7432,1.7001,1.6053,1.5136,1.4673,1.4166,1.3916,1.4416,1.4618,1.4845,1.5126,1.5301,1.5389,1.5389,1.5389,1.5389,1.5389,1.5389,1.5389,1.5389,1.5389,1.533,1.5199,1.5309,1.533,1.5192,1.5309,1.5389,1.5389,1.5389,1.5343,1.5269,1.4495,1.4068,1.3955,1.3166,1.2813,1.2813,1.2813,1.2813,2.3825,0.0,0.0,0.0,0.0,0.0,0.0,0.0,0.0,0.0,0.0,0.0,0.0,0.0,0.0,0.0,0.0,0.0,0.0,0.0,0.0,0.0,0.0,0.0,0.0,0.0,0.0,0.0,1.9661,0.0,1.9798,1.9656,1.9539,1.9394,1.9105,1.8533,1.76,1.7174,1.6595,1.5855,1.5759,1.5701,1.5701,1.5701,1.5701,1.5722,1.6419,1.6697,1.6765,1.7656,1.8008,1.8008,1.8008,1.8008,1.79,1.7019,1.7012,1.7314,1.6853,1.71,1.7607,1.791,1.8008,1.8008,1.8008,1.8008,1.8008,1.8008,1.8008,1.8008,1.8008,1.8008,1.7872,1.7329,1.6446,1.5569,1.5029,1.4427,1.4115,1.4445,1.4728,1.5009,1.533,1.5389,1.5389,1.5389,1.5389,1.5389,1.5389,1.5389,1.5389,1.5389,1.5389,1.5389,1.5389,1.5389,1.5389,1.5389,1.5389,1.5389,1.5389,1.5389,1.5542,1.5906,1.4923,1.4572,1.4909,1.3689,1.3098,1.3098,1.291,1.2813,0.0,0.0,0.0,0.0,0.0,0.0,0.0,0.0,2.2282,0.0,0.0,0.0,0.0,0.0,0.0,0.0,0.0,0.0,0.0,0.0,0.0,0.0,0.0,0.0,0.0,0.0,0.0,0.0,1.9279,0.0,1.9773,1.9656,1.9539,1.9394,1.8682,1.824,1.8066,1.6922,1.6301,1.6283,1.5884,1.5701,1.5701,1.5701,1.5701,1.5722,1.6419,1.6697,1.6765,1.7656,1.8008,1.8008,1.8008,1.8008,1.79,1.7019,1.7012,1.7314,1.6853,1.7252,1.7988,1.8008,1.8008,1.8008,1.8008,1.8008,1.8008,1.8008,1.8008,1.8008,1.8008,1.8008,1.7974,1.7974,1.6802,1.571,1.5675,1.4793,1.4115,1.4445,1.4728,1.5009,1.533,1.5389,1.5389,1.5389,1.5389,1.5389,1.5389,1.5389,1.5389,1.5389,1.5389,1.5389,1.5389,1.5389,1.5389,1.5389,1.5389,1.5389,1.5389,1.5389,1.5542,1.5906,1.5408,1.5341,1.5647,1.4438,1.3854,1.3859,1.3147,1.2813,0.0,0.0,2.5095,2.3652,0.0,0.0,0.0,0.0,0.0,0.0,0.0,0.0,0.0,0.0,0.0,0.0,0.0,0.0,0.0,0.0,0.0,0.0,0.0,0.0,0.0,0.0,0.0,1.9241,1.9409,1.961,0.0,1.9656,1.9539,1.9394,1.9078,1.8667,1.824,1.7341,1.6765,1.6503,1.5951,1.574,1.5827,1.5827,1.5875,1.5992,1.6625,1.6876,1.6904,1.769,1.8008,1.8008,1.8008,1.8008,1.79,1.7019,1.7155,1.7773,1.7627,1.7764,1.8008,1.8008,1.8008,1.8008,1.8008,1.8008,1.8008,1.8008,1.8008,1.8008,1.8008,1.8008,1.8008,1.8008,1.7226,1.6341,1.5807,1.5365,1.4965,1.456,1.4904,1.5258,1.5367,1.5389,1.5389,1.5389,1.5389,1.5389,1.5389,1.5389,1.5389,1.5389,1.5389,1.5389,1.5389,1.5389,1.5389,1.5389,1.5389,1.5389,1.5389,1.5389,1.5679,1.6206,1.555,1.5488,1.604,1.462,1.3902,1.3859,1.3147,1.2813,2.6182,2.6125,0.0,0.0,2.4345,0.0,0.0,0.0,0.0,0.0,0.0,0.0,0.0,0.0,0.0,0.0,0.0,0.0,0.0,0.0,0.0,0.0,0.0,0.0,0.0,0.0,1.9316,1.924,1.9409,1.961,0.0,0.0,1.9486,1.9394,1.921,1.8946,1.8548,1.7655,1.7101,1.687,1.5999,1.5672,1.5827,1.5827,1.5875,1.6002,1.6717,1.6971,1.6989,1.7723,1.8008,1.8008,1.8008,1.8008,1.792,1.7227,1.7314,1.7812,1.7959,1.8008,1.8008,1.8008,1.8008,1.8008,1.8008,1.8008,1.8008,1.8008,1.8008,1.8008,1.8008,1.8008,1.8008,1.8008,1.7442,1.6804,1.6422,1.5959,1.5505,1.5186,1.526,1.5389,1.5389,1.5389,1.5389,1.5389,1.5389,1.5389,1.5389,1.5389,1.5389,1.5389,1.5389,1.5389,1.5389,1.5389,1.5389,1.5389,1.5389,1.5389,1.5389,1.5389,1.5731,1.6404,1.5873,1.5952,1.6567,1.533,1.4567,1.4334,1.357,1.305]}]]